GFSNE_925_thetae_000.txt.gz
Theta_e
334 334 334 333 333 332 329 324 320 324 322 322 320 321 322 323 320 319 319 318 318 318 319 320 322 329 333 335 339 342 341 343 344 344 344 345 347 346
333 333 333 333 334 333 331 326 323 321 324 322 323 323 322 323 321 320 319 318 317 318 318 319 320 322 327 332 333 337 341 339 340 343 344 344 344 344
332 333 333 333 333 332 331 328 326 323 322 325 323 325 324 323 322 319 319 318 317 317 317 318 318 320 323 328 333 334 336 338 339 339 340 345 343 344
331 332 332 331 331 331 331 330 328 327 324 324 325 324 324 324 323 321 320 318 318 317 318 319 319 320 321 325 331 335 336 338 338 336 337 343 345 344
330 331 330 330 329 329 328 328 328 328 326 323 324 325 324 324 323 322 321 318 318 318 319 319 319 321 322 322 326 333 335 337 337 336 339 344 346 344
331 331 328 327 326 327 327 326 326 326 325 324 324 324 324 324 322 321 320 319 319 319 318 318 319 320 321 322 324 328 335 336 337 337 337 340 343 345
330 328 326 324 323 323 324 325 325 325 325 324 324 324 324 324 322 321 319 319 319 318 318 318 319 321 322 324 328 327 332 336 336 337 336 337 339 339
329 327 325 324 322 321 324 323 323 324 325 325 324 324 324 323 322 320 319 319 321 318 318 319 319 320 321 323 323 330 333 334 337 336 336 339 339 339
329 328 326 324 321 320 320 321 322 324 324 324 324 323 323 321 320 319 319 318 319 318 318 319 319 320 321 322 323 325 330 337 338 336 336 336 338 338
329 328 325 323 321 322 320 321 322 322 321 320 319 319 318 318 319 319 319 318 318 318 318 319 319 320 321 322 323 324 330 337 340 339 336 335 335 336
329 326 323 322 322 320 320 321 321 320 319 318 317 316 316 317 318 317 317 318 317 317 317 318 319 319 321 323 323 325 328 334 341 341 337 336 337 335
326 323 322 320 319 318 319 318 317 317 315 315 314 314 314 315 317 316 317 318 317 317 318 318 319 320 323 323 323 326 331 335 341 342 338 337 337 335
324 323 320 317 319 319 318 316 314 313 312 311 312 312 312 313 315 317 317 315 315 317 317 318 319 323 323 327 332 328 332 337 342 342 340 337 335 338
323 320 316 316 315 316 314 313 312 310 309 310 310 310 311 311 312 314 316 314 316 317 316 322 322 324 325 327 330 335 338 339 340 340 341 340 339 339
317 315 313 312 313 314 312 311 309 308 308 307 307 307 307 309 309 313 314 314 316 316 319 321 324 325 325 331 338 333 333 333 335 337 338 338 339 339
315 313 312 314 314 312 311 309 306 306 305 303 303 304 306 306 306 310 311 313 314 316 319 321 324 324 325 326 333 336 335 333 332 333 335 335 338 340
312 311 313 312 311 310 308 306 304 303 302 301 301 302 303 302 303 308 309 311 314 315 318 320 321 325 327 327 332 336 336 334 334 333 331 329 333 337
309 311 310 309 306 305 304 302 301 301 300 299 299 300 300 300 301 306 308 310 311 314 318 319 320 322 325 323 324 326 335 335 335 332 332 332 331 333
309 308 307 304 302 301 299 298 298 298 298 298 298 298 298 299 300 303 305 308 310 313 317 318 319 320 326 327 318 318 323 335 335 332 332 333 334 333
308 305 303 299 298 297 297 296 295 295 297 297 297 297 298 298 300 302 303 305 308 313 316 317 317 319 319 321 321 318 321 324 334 335 335 336 336 337
303 301 299 299 299 299 297 295 292 294 296 296 297 297 297 298 299 300 302 304 307 311 314 315 316 317 317 318 318 319 320 320 327 330 334 336 336 336
301 301 300 300 300 297 294 291 291 295 296 296 296 297 297 298 298 299 301 301 304 307 310 313 317 317 315 316 316 316 316 318 319 321 327 330 333 339
302 301 299 298 295 294 292 293 295 295 295 295 295 296 297 297 298 298 300 301 303 305 306 308 312 313 312 313 313 313 313 314 316 317 318 319 321 330

GFSNE_925_thetae_003.txt.gz
Theta_e
336 336 335 335 335 335 335 333 332 333 332 327 327 326 327 326 326 326 325 323 318 318 318 317 317 317 318 319 322 330 335 339 342 345 346 343 345 347
333 337 337 335 336 335 335 333 332 330 332 326 327 327 328 328 327 326 327 323 322 319 318 316 317 317 318 318 320 322 329 334 338 342 342 344 344 345
336 336 336 332 333 334 334 333 332 330 330 327 326 328 328 328 328 328 327 326 324 322 320 317 317 318 318 318 319 321 324 329 333 337 342 340 342 345
334 335 335 335 336 335 332 333 331 331 330 329 327 327 328 328 328 328 327 325 325 323 321 318 319 319 318 318 319 320 322 325 331 334 337 339 340 341
334 334 335 335 334 331 332 331 330 330 330 329 327 326 326 327 327 327 327 326 325 322 321 320 320 319 319 319 319 320 321 322 326 333 336 337 338 340
331 334 335 332 331 331 331 331 331 330 329 329 327 326 326 326 326 326 325 324 323 322 321 321 321 320 320 321 321 322 322 323 324 329 335 337 338 337
335 333 331 330 327 325 326 326 329 329 327 327 326 326 325 325 325 325 325 324 323 322 321 321 321 320 320 321 322 323 324 325 328 327 333 336 338 337
337 332 330 329 326 324 323 320 323 327 327 326 325 326 327 326 325 326 324 323 324 321 322 322 320 319 319 321 321 322 323 326 327 330 329 336 337 337
331 331 331 331 327 327 324 321 323 323 323 326 328 327 326 325 325 324 322 322 322 322 321 322 319 319 319 320 321 321 322 323 324 324 332 332 336 336
331 331 332 330 329 325 325 325 325 326 326 325 324 324 323 322 320 320 320 320 321 321 320 321 318 318 318 319 320 321 321 323 324 325 328 336 336 336
331 331 329 327 324 322 320 323 324 323 323 319 318 317 316 316 316 317 318 320 321 320 318 317 317 318 318 319 320 321 323 323 324 325 327 336 339 337
331 328 325 323 322 319 319 322 322 322 320 318 318 317 317 317 316 318 319 318 320 319 317 317 317 318 319 320 321 324 326 325 326 326 331 337 341 340
330 328 324 322 317 317 318 320 319 315 316 316 316 316 316 317 318 318 317 318 319 318 317 317 317 318 319 321 322 324 328 329 330 329 331 334 342 340
330 326 320 315 313 313 315 316 314 312 314 314 315 315 315 315 315 314 314 316 317 317 316 316 317 318 321 323 326 327 331 333 336 337 334 339 342 341
321 318 316 314 313 313 314 313 312 313 313 313 313 312 311 311 312 310 311 315 316 317 316 316 318 321 323 324 327 328 333 335 337 338 337 337 340 337
318 316 314 313 313 315 313 312 311 310 309 309 309 308 308 309 308 307 310 314 315 317 315 316 318 320 323 324 326 327 332 334 333 333 334 332 335 335
315 315 316 315 315 315 313 311 310 308 307 307 306 306 306 306 306 306 310 314 315 315 315 317 318 320 322 324 327 328 333 334 331 331 330 329 331 333
313 315 315 314 314 313 311 309 307 305 305 304 304 304 304 304 304 305 310 314 316 316 316 317 318 319 323 321 320 318 322 334 333 332 332 331 330 331
313 313 313 312 310 308 305 304 304 303 301 302 302 303 302 303 303 305 310 312 312 313 316 317 317 317 320 322 320 320 317 319 332 332 333 334 334 332
312 311 310 307 305 304 304 303 301 300 300 301 301 301 302 302 303 304 308 308 308 308 314 318 316 315 317 319 320 318 317 317 323 332 333 335 337 337
309 307 305 304 304 304 303 300 298 297 298 300 300 301 301 301 302 303 306 307 308 308 310 313 314 316 316 317 318 317 316 317 317 321 327 336 337 333
306 305 305 304 304 302 299 297 297 299 300 300 300 300 300 301 301 302 304 307 310 309 311 309 313 314 314 315 316 316 315 314 316 318 322 318 335 341
307 306 305 303 300 298 296 297 298 299 299 299 299 299 300 300 300 301 302 305 307 307 304 306 312 310 311 311 314 314 313 313 313 315 316 318 321 335

GFSNE_925_thetae_006.txt.gz
Theta_e
332 333 334 330 329 330 331 333 333 333 331 328 328 328 328 327 328 328 329 329 328 324 320 319 317 317 317 318 318 318 318 320 325 333 339 342 347 344
328 330 333 330 331 332 332 331 331 331 332 327 327 327 329 329 329 329 329 329 328 327 325 322 320 318 317 319 318 318 318 319 319 324 332 337 342 346
330 333 334 336 333 330 330 329 329 329 330 328 327 327 328 330 330 330 329 328 328 327 325 324 323 320 319 319 320 318 319 319 320 320 324 331 336 341
332 334 335 334 334 334 332 331 329 329 330 329 328 328 328 327 328 330 329 328 327 327 326 325 322 321 321 321 321 319 320 320 320 320 321 325 331 336
333 334 334 334 334 332 332 329 328 328 328 328 329 328 327 326 326 327 328 326 326 326 325 324 323 322 322 322 321 320 320 320 321 321 321 322 326 333
334 335 335 335 333 333 332 332 331 331 329 328 328 327 327 326 326 326 326 324 323 324 324 323 322 322 322 322 321 321 321 321 321 322 323 323 322 328
334 335 335 336 333 332 330 328 329 328 327 327 327 326 325 326 327 325 325 325 324 324 324 322 320 322 323 323 322 321 321 320 320 321 323 325 324 324
337 337 335 333 334 331 328 325 325 327 327 326 326 326 327 327 327 326 325 325 326 323 323 321 322 324 323 322 321 320 319 319 319 320 321 322 328 328
338 336 334 331 332 333 332 330 327 327 326 327 328 328 327 326 326 326 325 324 323 321 322 324 323 323 321 321 319 320 320 319 319 320 321 321 322 325
338 336 333 331 331 332 332 330 328 328 328 328 327 325 325 324 322 321 321 321 321 322 323 325 322 320 320 320 320 319 319 319 319 319 320 321 322 323
333 330 327 326 332 330 326 327 327 326 325 324 322 320 319 318 318 319 320 321 323 322 322 323 321 321 320 319 319 319 320 320 320 320 320 321 321 323
328 331 331 330 329 325 323 325 325 325 324 322 321 321 319 320 320 320 320 321 321 322 321 321 321 319 318 318 318 319 320 322 324 324 322 322 322 323
332 333 332 327 323 320 317 321 323 322 319 320 319 317 316 317 318 319 320 319 318 318 318 320 320 319 317 317 318 319 322 324 324 326 327 324 323 324
335 331 329 326 318 315 314 317 317 315 317 319 318 315 316 316 316 316 316 316 314 316 319 320 320 318 316 317 320 321 325 326 328 330 331 326 325 326
331 327 323 318 316 315 313 314 314 317 319 317 315 315 315 314 314 314 313 311 312 317 320 320 319 318 318 319 320 324 325 325 327 333 334 332 324 326
323 320 319 318 317 317 317 314 317 317 315 313 314 314 313 313 312 311 310 309 314 319 321 321 318 318 318 320 323 326 325 327 330 336 336 335 332 331
323 322 321 321 320 320 319 318 316 314 313 313 312 312 311 310 309 308 307 310 316 319 318 319 319 318 317 319 320 321 320 321 331 332 333 332 332 335
318 320 320 320 319 319 318 316 313 312 311 310 309 309 308 307 307 306 307 311 316 318 315 315 321 318 317 317 319 318 318 319 320 330 331 332 331 332
317 318 318 318 317 316 314 312 311 310 309 308 307 307 306 306 305 306 307 310 314 314 314 315 320 317 316 318 317 319 316 316 318 322 333 332 334 332
317 317 317 316 314 312 311 310 309 308 306 305 305 305 305 305 305 305 306 309 313 316 315 318 317 315 314 316 316 317 316 314 316 318 327 334 337 337
315 314 312 311 310 310 310 308 306 304 301 303 304 304 304 304 304 304 305 307 311 314 314 311 314 313 315 315 316 315 315 314 315 315 316 324 335 333
313 312 310 310 310 309 307 305 303 302 303 303 303 303 303 303 304 304 304 305 311 312 310 310 314 313 312 313 314 314 314 312 312 313 314 315 314 326
312 311 311 309 308 305 303 302 301 302 302 302 302 302 302 303 303 303 303 304 306 308 311 315 313 309 309 310 311 313 313 312 311 312 312 316 317 319

GFSNE_925_thetae_009.txt.gz
Theta_e
335 335 335 333 330 330 331 332 333 337 336 331 330 331 329 330 330 330 330 330 330 329 328 326 322 320 319 318 317 318 318 318 318 318 319 321 330 339
332 331 333 332 331 331 332 332 330 330 331 329 330 329 329 330 330 330 330 329 329 329 329 328 326 324 323 321 319 318 319 319 318 319 319 319 320 326
335 331 332 335 334 332 330 330 328 329 330 329 328 329 331 329 329 330 331 330 329 328 328 328 326 326 324 322 321 321 320 320 320 320 320 320 320 320
333 332 334 334 336 337 333 333 332 330 330 333 330 330 329 329 330 329 329 329 328 327 326 327 326 324 324 323 322 321 321 321 320 320 320 320 320 321
334 334 335 335 335 334 334 333 331 330 331 328 328 328 328 328 327 329 327 329 329 326 327 327 326 325 324 323 322 322 322 322 321 321 320 320 321 322
335 334 335 336 336 336 335 335 334 333 331 330 328 329 329 328 329 327 328 326 326 327 326 325 325 325 324 322 321 322 323 323 322 321 321 320 319 319
335 334 335 336 335 336 335 333 333 331 330 329 329 328 327 327 328 328 329 328 327 326 324 325 325 324 323 321 323 324 324 323 323 321 320 320 319 319
336 336 337 337 335 332 331 332 331 330 330 329 329 329 329 329 328 328 328 327 326 324 324 324 322 322 322 323 324 323 322 321 320 319 319 320 320 320
337 338 338 337 333 334 334 332 330 330 329 328 330 330 330 329 327 327 326 326 325 323 322 323 322 324 324 323 324 321 320 320 321 320 320 320 319 319
336 337 338 338 337 333 330 329 332 332 331 330 329 329 328 326 325 323 322 322 321 321 322 325 324 325 324 325 322 322 320 320 320 319 320 320 319 319
337 338 339 338 332 329 328 329 330 330 330 328 326 324 323 321 320 320 320 320 320 321 322 322 323 323 322 321 321 321 320 319 319 319 320 320 321 321
337 339 337 330 331 331 330 327 329 330 328 326 327 324 323 323 320 320 321 322 321 322 321 321 319 319 322 321 320 319 318 318 318 319 320 323 323 322
338 336 334 333 330 329 326 325 327 325 326 322 321 321 322 320 317 319 322 321 320 319 318 315 316 321 323 322 319 318 319 319 319 321 323 324 326 324
335 333 334 334 328 324 321 318 317 317 319 319 321 321 320 316 316 317 317 316 317 318 315 315 319 321 322 320 319 318 318 321 321 323 325 326 327 327
331 332 330 327 323 319 318 315 314 317 319 321 321 317 315 315 315 315 316 314 314 311 313 320 320 320 321 320 319 318 321 320 320 325 326 328 331 328
327 325 322 321 320 321 319 319 318 319 320 318 315 315 314 314 313 312 311 310 309 310 317 319 319 319 321 319 318 317 320 319 318 320 321 334 334 327
328 326 325 324 323 323 322 321 320 319 318 316 315 313 312 312 311 310 309 308 309 313 317 318 318 319 320 318 317 317 318 318 316 318 320 334 334 331
324 323 323 322 322 321 321 321 319 317 316 315 312 311 311 310 309 308 308 308 310 314 316 319 318 320 317 317 317 317 317 316 315 316 319 329 333 333
319 320 321 321 320 320 319 317 315 314 313 311 310 309 308 308 307 307 307 308 310 312 315 318 317 317 316 317 316 316 315 314 313 315 316 318 332 333
318 319 320 319 318 317 315 314 313 312 310 308 307 307 307 307 307 307 307 307 308 312 316 316 312 314 314 316 316 315 314 313 311 313 314 314 323 334
320 318 317 316 315 314 313 312 311 309 306 304 306 306 306 306 306 306 306 306 306 311 313 315 315 314 314 315 315 314 313 312 311 311 311 312 319 333
318 317 315 314 313 313 312 310 308 306 305 306 305 305 305 305 305 305 305 306 306 307 309 315 313 312 312 312 312 313 313 311 310 309 309 309 311 317
317 316 315 314 313 312 309 307 305 304 305 305 305 304 304 304 305 304 305 305 306 306 306 311 315 314 312 310 310 312 311 310 310 309 308 309 309 310

GFSNE_925_thetae_012.txt.gz
Theta_e
337 336 334 334 334 331 333 331 333 337 337 331 331 332 330 330 330 330 330 330 329 329 328 328 328 327 326 321 320 319 318 318 318 318 318 318 318 319
335 335 336 335 333 334 333 331 332 335 337 331 330 328 331 330 330 331 330 329 328 330 330 329 328 327 327 326 325 323 320 319 318 319 319 319 319 319
334 334 332 333 333 333 335 333 329 328 334 329 326 328 328 328 328 329 329 329 330 331 329 328 328 327 327 326 324 323 322 321 320 320 319 320 320 320
336 335 333 333 334 333 334 333 333 333 332 333 331 330 332 330 329 328 328 332 330 330 328 327 328 327 326 325 324 324 323 322 321 322 321 321 321 320
335 334 332 333 336 335 337 334 334 333 335 333 332 330 329 327 328 327 327 328 328 326 326 325 326 326 326 326 326 325 324 322 321 322 322 322 322 321
337 336 335 336 336 336 334 334 334 334 333 332 333 333 331 329 329 330 329 328 329 329 329 328 326 325 325 326 326 325 324 322 322 322 323 323 322 322
340 336 334 336 337 336 336 335 336 334 332 330 328 329 330 330 330 329 329 328 328 327 329 326 325 325 325 323 323 322 322 322 323 324 324 323 321 320
340 339 335 335 335 335 335 334 334 332 330 329 330 329 330 330 330 329 329 328 328 327 326 325 323 324 322 320 320 323 324 324 322 321 321 321 320 320
342 338 336 336 338 337 335 333 332 331 330 328 327 330 330 330 329 328 328 328 326 323 322 322 321 323 324 325 325 324 325 323 322 321 319 318 318 319
339 338 336 336 338 337 335 335 333 329 329 330 331 331 329 328 327 325 321 320 321 321 321 324 323 321 321 323 324 324 321 320 319 318 318 319 319 319
336 336 337 337 337 336 336 334 329 330 331 330 330 329 329 327 324 321 322 321 322 322 322 321 321 323 322 319 318 319 320 320 319 318 318 319 319 319
336 334 336 336 336 334 332 331 332 330 330 331 329 327 326 325 321 322 323 322 322 323 322 321 319 317 315 316 320 321 322 319 319 318 318 320 320 319
336 338 338 336 335 333 330 330 330 329 327 325 325 322 321 322 324 324 322 322 323 320 317 316 317 316 317 320 321 321 321 318 318 317 320 320 321 322
338 337 336 334 334 333 327 324 322 319 318 320 321 321 322 318 316 316 315 315 315 315 316 318 319 319 320 320 320 320 320 318 317 319 320 318 318 320
335 336 332 330 332 328 322 320 319 319 318 320 321 320 315 316 315 315 316 314 312 311 309 309 319 318 319 319 321 321 319 318 317 318 318 316 317 318
330 328 328 328 326 322 322 321 320 319 320 321 319 317 317 314 313 313 312 310 309 309 311 312 316 318 319 319 320 319 318 318 316 316 315 314 316 319
328 328 323 323 323 322 320 321 321 320 320 321 317 316 313 312 312 311 309 308 310 311 312 315 316 316 318 318 317 317 317 316 315 314 313 314 316 317
328 329 327 327 326 324 324 323 322 321 320 316 314 313 312 311 310 308 308 309 310 310 311 316 316 316 316 316 315 316 315 315 313 312 312 314 314 315
325 323 322 323 321 321 320 318 317 316 314 313 312 311 308 308 309 308 308 308 309 308 309 312 315 316 316 316 315 315 315 314 312 311 311 311 311 313
318 320 321 320 318 318 317 315 314 313 311 309 306 306 307 308 307 308 308 307 307 308 309 313 316 316 315 315 314 315 314 313 311 310 310 309 310 313
321 321 319 318 316 315 315 314 313 311 308 306 306 308 307 306 307 306 306 306 306 308 310 308 314 313 312 313 313 312 313 311 310 309 308 307 309 310
320 319 317 316 315 314 314 313 310 308 306 306 307 305 306 306 305 306 306 306 306 307 307 305 309 314 312 311 310 311 312 309 309 308 306 305 307 308
320 318 317 316 315 314 313 310 308 305 305 305 305 305 304 305 305 305 305 306 306 306 305 305 310 315 311 310 311 310 308 308 308 307 305 303 304 304

GFSNE_925_thetae_015.txt.gz
Theta_e
334 332 332 334 333 333 331 331 331 329 328 332 331 332 333 331 330 329 330 330 330 329 328 329 329 329 328 327 326 324 320 321 320 318 317 317 318 318
337 336 333 330 334 333 333 333 331 331 329 333 328 326 326 327 328 329 330 330 329 327 327 327 329 329 329 328 327 327 325 324 321 319 319 318 319 319
337 335 335 334 334 332 333 333 331 330 332 330 329 328 329 328 328 329 329 329 331 329 328 328 329 328 327 328 327 326 326 324 323 322 321 321 320 319
335 335 335 336 334 332 332 332 334 333 333 331 331 331 331 328 329 328 327 327 328 327 331 329 329 327 325 325 325 326 326 325 324 323 322 321 322 321
337 335 334 332 330 331 334 334 335 334 333 333 333 331 330 331 331 329 328 330 329 330 329 327 328 328 328 326 325 324 325 326 325 324 324 323 321 322
339 338 338 335 330 334 336 335 335 333 333 333 333 332 332 330 330 330 328 328 327 328 328 326 327 327 325 325 324 323 323 323 324 324 324 322 323 322
339 337 335 334 332 333 335 334 334 334 335 335 333 330 329 328 329 330 330 329 327 326 325 325 326 325 324 322 318 318 319 319 321 323 323 323 323 323
339 337 338 336 335 335 337 336 335 334 335 334 332 329 329 328 329 329 329 328 326 325 326 322 318 318 320 322 323 324 324 325 324 324 321 321 320 319
339 338 341 339 336 335 335 335 335 333 333 332 330 329 329 327 329 330 328 327 328 323 319 320 321 321 321 321 320 321 322 323 321 320 319 318 318 318
340 340 338 338 336 335 336 337 336 334 333 332 329 329 329 329 329 329 328 326 323 320 319 321 322 321 320 320 320 318 316 316 315 317 319 318 317 317
337 336 338 338 336 336 334 334 333 332 331 329 329 329 329 329 329 328 325 322 320 321 321 321 321 320 317 313 312 313 316 318 319 319 319 319 318 317
335 335 337 336 336 334 331 332 331 330 331 330 331 328 327 326 324 324 323 321 320 320 322 322 321 317 314 315 315 316 318 318 319 319 320 318 317 317
336 335 335 334 333 332 331 332 331 330 330 328 326 321 320 320 321 321 319 319 320 321 316 318 317 317 317 317 319 318 318 319 319 320 318 316 317 316
337 336 335 335 334 333 333 329 328 326 322 319 318 319 320 318 316 315 314 315 316 317 313 310 310 310 316 318 317 318 318 318 318 318 316 315 316 316
338 336 335 334 333 332 331 328 323 319 319 318 319 320 318 317 313 312 312 312 310 308 308 309 310 313 318 318 317 318 318 317 315 316 315 314 314 314
336 334 332 329 329 329 326 322 320 320 319 319 320 320 317 313 312 312 310 309 307 308 308 309 312 317 316 315 316 317 316 316 315 315 314 312 312 312
330 327 326 324 323 322 321 321 321 320 319 320 321 317 313 311 311 309 309 308 308 309 309 308 307 314 315 315 316 315 315 315 315 314 312 311 311 311
326 326 325 324 325 325 325 323 321 321 321 320 315 312 311 310 308 308 308 307 308 308 308 307 307 311 315 315 314 314 315 315 314 313 311 310 309 309
328 329 327 323 323 322 322 322 321 321 320 313 308 307 307 307 307 308 307 307 307 306 306 306 311 314 313 313 313 313 314 314 312 309 309 309 308 306
325 323 321 319 318 317 316 315 313 312 311 309 307 306 306 307 307 306 306 307 305 306 306 309 305 310 314 312 312 312 311 311 309 308 308 306 305 306
320 318 320 316 315 315 314 313 312 311 310 307 306 306 307 306 306 305 305 305 305 305 307 305 304 309 312 310 310 310 309 308 307 306 305 303 304 305
321 318 316 316 315 315 314 313 311 308 307 306 307 306 305 304 304 304 305 304 306 306 306 304 305 311 311 309 309 308 307 306 306 304 303 302 303 304
320 317 316 316 316 315 314 313 308 306 305 306 305 304 304 304 304 304 304 305 306 305 305 305 305 311 309 308 307 306 305 305 305 303 302 300 300 300

GFSNE_925_thetae_018.txt.gz
Theta_e
331 336 335 335 334 333 332 334 329 326 325 330 330 331 332 332 330 329 329 329 329 330 330 329 328 327 329 329 329 328 327 326 324 323 322 319 318 317
335 334 333 330 332 333 332 332 330 329 325 331 329 327 325 325 327 327 328 328 329 329 330 330 329 328 329 330 329 328 328 327 326 324 323 321 320 320
336 336 336 333 333 334 333 334 331 332 331 331 330 329 329 329 329 328 328 329 329 329 331 331 329 329 329 330 328 326 325 326 326 326 324 323 321 321
335 338 337 334 334 335 333 332 332 330 334 331 331 330 330 329 330 330 330 329 328 329 329 330 331 328 327 327 327 327 326 325 325 326 326 325 324 323
335 336 335 334 334 335 334 332 333 335 333 333 332 331 329 331 330 330 329 329 329 328 326 325 326 326 327 327 326 325 325 324 324 325 325 326 325 325
336 335 337 335 334 333 331 330 334 335 334 333 333 332 332 330 330 328 329 329 328 327 325 324 323 324 326 325 324 322 319 318 319 320 319 320 320 320
338 336 337 337 336 336 333 330 336 335 334 334 333 332 331 330 329 328 329 329 329 326 324 322 321 318 318 319 320 321 323 324 323 323 322 323 323 322
339 336 334 336 337 336 334 332 333 335 334 331 330 331 331 330 328 328 328 329 325 325 325 325 318 319 321 321 319 319 321 322 322 322 322 322 320 319
339 338 334 337 337 337 336 335 336 334 334 326 331 332 330 329 328 328 329 329 328 327 326 322 319 319 319 321 320 319 316 317 318 315 315 316 318 319
341 338 337 338 337 337 336 335 335 333 327 330 329 330 330 329 330 330 329 329 328 327 324 320 321 321 320 321 319 313 311 312 315 317 317 318 318 319
341 340 340 339 339 337 335 336 334 331 329 331 330 330 330 329 327 326 326 327 323 323 321 320 321 320 319 319 314 313 313 316 316 317 318 317 317 317
340 341 338 335 337 335 335 335 333 329 329 330 330 329 327 326 324 320 320 323 321 319 319 319 319 319 317 315 313 310 315 316 316 317 317 315 316 317
334 334 335 335 336 335 333 332 331 329 330 329 327 322 319 319 319 318 315 315 319 319 315 317 317 314 313 313 313 315 316 316 316 317 316 314 314 314
337 338 337 336 335 333 332 331 330 329 328 323 318 318 319 319 316 315 313 312 312 312 308 308 310 309 311 314 317 316 315 315 315 316 315 314 314 313
340 338 337 335 333 331 330 331 329 327 322 318 318 319 320 318 314 313 312 310 309 308 307 308 308 309 311 317 316 315 315 315 314 315 315 315 314 313
337 337 335 334 331 330 330 329 326 322 318 319 319 319 320 315 313 311 309 308 308 307 307 307 308 308 308 312 315 315 315 314 314 314 314 314 313 312
336 335 332 328 328 327 326 323 321 319 319 318 319 320 319 313 311 309 307 308 307 306 307 306 305 306 308 310 315 314 314 313 313 313 313 311 310 308
332 328 326 325 323 323 323 321 321 321 320 319 320 316 312 310 307 307 307 306 306 306 305 305 305 308 306 305 311 313 312 312 312 311 310 308 307 307
326 326 325 325 325 323 323 323 322 322 322 321 312 308 307 306 306 307 306 305 305 305 304 305 306 306 306 309 313 311 311 309 309 307 306 306 306 304
327 328 327 322 321 320 319 317 317 314 312 310 309 306 306 307 306 305 304 304 304 304 305 306 304 303 308 309 310 310 308 307 306 305 305 303 303 302
324 323 319 318 317 316 314 313 312 311 309 307 306 306 306 305 305 304 304 304 304 304 304 305 304 305 312 309 308 308 307 305 304 303 302 301 300 300
320 321 318 316 315 314 314 313 312 310 307 306 305 306 305 304 303 304 304 304 304 304 303 304 304 308 310 308 307 307 305 304 304 303 302 300 299 300
320 319 316 315 315 315 314 313 310 307 305 304 305 304 304 303 304 304 304 304 303 303 303 304 305 311 307 306 306 305 304 303 303 302 301 300 298 297

GFSNE_925_thetae_021.txt.gz
Theta_e
335 336 336 335 334 333 333 332 328 325 324 328 330 329 331 332 331 329 329 329 328 328 329 329 329 329 329 328 329 329 329 329 328 327 325 323 321 319
334 334 333 334 334 333 331 331 330 328 324 328 330 327 326 327 327 328 328 328 328 328 328 329 330 330 330 330 329 329 329 327 326 327 326 325 323 321
336 336 333 333 331 331 333 333 333 331 327 330 331 328 328 328 328 329 328 328 329 329 328 328 328 330 330 330 328 327 327 326 326 326 326 326 326 324
337 335 334 335 336 333 334 333 333 331 330 328 329 330 330 330 329 330 329 330 329 329 329 328 326 325 327 326 326 328 327 325 325 325 324 324 326 326
336 334 332 336 336 334 334 334 333 332 333 333 331 331 331 330 329 329 329 328 327 328 328 327 324 323 323 324 326 325 324 323 322 322 322 321 321 323
337 337 333 334 335 334 334 334 333 332 333 334 333 332 331 331 330 329 329 328 327 327 327 324 322 320 318 319 319 319 318 319 320 320 321 321 320 321
339 338 337 334 335 335 335 334 332 332 334 334 332 331 329 327 328 329 328 327 326 327 327 323 323 320 317 319 320 319 318 319 320 320 320 321 322 323
341 340 338 336 335 336 337 336 336 333 333 334 332 329 328 328 329 327 327 327 326 328 325 325 325 321 318 319 318 320 319 318 315 316 319 315 316 317
343 342 339 338 337 335 336 337 337 335 333 333 330 326 327 330 329 328 328 327 327 328 327 325 325 323 320 321 319 319 318 315 310 311 313 315 317 317
344 344 342 341 338 334 336 337 336 335 335 330 329 327 329 328 329 329 329 329 328 327 326 321 322 322 318 315 315 315 314 312 311 314 315 316 317 317
344 345 342 341 340 337 338 337 335 335 334 332 327 328 329 329 329 326 326 325 323 322 321 320 320 317 316 314 312 311 311 311 313 315 315 316 317 317
347 343 342 341 340 339 339 337 334 333 333 331 329 329 328 327 324 321 319 320 320 319 317 318 317 316 315 311 310 309 311 313 314 314 314 315 316 316
344 342 340 340 335 334 334 336 333 330 331 330 329 325 318 318 318 318 315 314 317 318 315 316 316 313 311 311 310 310 314 314 314 314 312 312 314 315
337 335 335 336 336 335 336 334 332 331 329 328 322 318 319 320 317 316 313 312 312 311 309 308 309 308 309 309 310 309 312 313 313 314 312 313 313 313
336 336 338 337 336 335 333 332 332 330 327 323 318 318 319 318 316 313 313 311 309 308 307 306 307 307 307 308 310 309 313 312 313 313 312 312 312 311
340 339 337 336 334 332 330 331 329 327 325 319 318 318 319 320 316 312 311 308 307 307 306 306 305 305 305 306 307 309 308 313 312 311 310 310 310 310
339 336 335 333 331 328 328 327 326 324 321 318 318 318 319 319 315 310 308 307 306 305 305 304 304 305 306 305 305 305 310 312 310 308 307 308 307 307
335 334 333 329 327 326 323 322 321 321 320 319 318 319 319 314 310 307 306 306 304 304 304 304 305 305 304 304 305 310 311 310 307 306 305 305 304 304
334 332 328 325 323 323 323 323 323 323 321 320 320 316 309 307 305 306 305 304 304 304 304 304 304 304 300 302 308 310 310 308 305 304 304 303 302 302
328 325 325 325 325 322 321 321 321 319 320 319 312 308 306 306 306 305 304 303 303 303 304 304 304 303 301 304 309 309 307 306 304 303 303 302 301 301
326 327 327 326 322 320 320 318 316 314 312 310 310 306 305 306 305 303 303 303 303 303 302 303 303 304 307 311 307 306 305 305 304 303 302 302 301 300
325 325 321 319 319 317 315 314 313 312 311 309 306 305 305 305 303 303 303 303 303 302 301 303 304 305 311 307 305 305 304 304 304 302 302 301 300 300
323 320 319 318 317 315 314 313 312 310 308 306 304 305 304 303 303 303 303 303 302 302 301 303 303 304 309 306 304 303 303 304 302 301 301 301 299 298

GFSNE_925_thetae_024.txt.gz
Theta_e
336 336 335 334 334 333 331 329 328 332 331 328 328 329 329 330 331 330 329 329 328 328 328 327 328 328 329 329 330 329 328 329 329 327 327 327 325 323
337 334 335 335 334 334 332 332 332 329 332 328 329 329 328 329 329 328 328 328 328 328 328 328 329 328 328 330 331 329 329 328 327 326 325 325 326 326
337 336 333 332 333 333 333 331 331 329 329 328 329 330 327 327 328 328 329 329 329 330 330 328 328 327 327 328 328 328 327 327 327 326 326 326 325 326
337 337 335 333 332 331 330 332 332 331 331 330 329 329 329 329 329 328 330 329 328 327 327 328 327 326 324 323 324 324 325 325 325 324 323 323 324 324
335 336 335 334 334 334 333 332 333 332 331 330 331 331 330 330 330 330 329 329 328 327 327 328 327 324 320 318 320 322 323 323 323 322 321 319 319 320
339 337 336 335 333 335 335 333 333 334 332 332 332 332 332 331 329 328 328 328 328 327 326 326 325 322 321 317 318 319 320 320 320 320 320 321 321 321
343 339 339 337 335 331 335 335 333 333 332 332 332 332 332 330 327 328 328 327 328 327 326 326 324 324 322 317 317 319 320 319 317 316 315 318 320 320
344 343 340 339 335 335 334 335 335 334 333 332 333 332 331 328 327 329 328 327 328 327 327 327 327 326 324 323 320 321 319 319 319 317 310 311 312 312
346 344 342 342 339 337 336 335 336 337 336 335 332 332 330 326 329 328 327 329 327 328 327 326 326 326 322 321 320 317 316 316 316 314 311 312 315 316
347 345 345 344 343 340 338 336 336 337 336 334 334 331 329 326 329 328 329 328 327 327 325 324 322 321 317 315 314 314 313 312 311 310 311 314 315 315
348 346 346 344 343 342 339 337 336 337 335 334 334 332 328 329 329 329 328 325 325 322 320 320 319 317 315 312 311 310 310 309 310 312 313 314 313 313
345 346 346 344 343 341 339 337 338 337 334 333 332 330 329 328 327 324 321 321 321 320 316 318 316 316 314 309 309 308 309 308 312 314 313 313 313 312
343 344 344 343 341 340 339 338 335 335 333 331 329 328 325 318 317 318 317 315 315 316 314 316 315 314 313 311 308 307 307 307 308 311 311 313 311 310
346 346 344 340 338 336 335 334 334 335 331 329 328 323 317 319 317 316 315 313 312 311 310 309 312 309 309 310 309 306 306 307 307 309 313 311 309 308
347 341 335 335 336 335 335 335 334 333 330 327 325 318 318 319 317 316 313 312 310 308 307 306 306 306 306 306 308 308 310 309 307 312 312 310 310 310
336 335 337 337 336 335 334 333 332 331 329 326 320 317 318 318 319 316 313 310 308 307 306 305 304 304 304 305 305 308 308 310 312 311 310 309 308 308
336 337 337 335 334 333 331 329 330 328 325 321 318 318 318 318 318 314 310 307 306 305 304 304 304 304 305 304 305 306 308 312 311 310 308 307 307 306
337 334 333 333 331 328 327 327 325 324 321 319 318 318 318 318 314 309 306 306 305 304 303 303 304 304 304 304 304 306 311 311 310 308 306 306 305 305
336 334 333 332 330 326 325 323 321 321 321 320 320 319 318 313 308 306 305 304 303 303 303 303 302 304 306 307 305 309 310 309 308 306 305 305 304 304
338 335 334 332 326 323 322 322 322 322 321 320 320 319 311 307 305 305 304 303 303 303 303 303 302 303 304 306 307 310 307 305 305 305 304 304 303 303
333 333 332 326 323 323 321 321 320 319 318 317 315 310 306 305 305 304 303 303 302 303 304 304 302 303 304 308 309 308 307 304 303 303 303 303 303 302
330 326 325 325 325 322 320 319 316 315 313 311 310 308 304 305 304 303 303 303 303 302 302 302 302 303 305 308 309 308 306 303 303 302 301 301 301 302
326 326 326 325 320 320 317 315 314 314 312 311 309 306 304 305 303 303 303 303 302 301 301 302 302 302 304 304 305 306 304 301 301 301 301 301 300 299

GFSNE_925_thetae_027.txt.gz
Theta_e
338 336 337 339 338 336 334 334 334 335 334 334 333 331 333 331 331 331 332 331 329 328 328 328 327 328 328 328 328 329 329 329 329 329 329 327 326 327
340 339 337 338 338 337 337 336 334 334 336 333 333 333 331 334 331 329 329 328 327 327 327 327 328 328 328 327 327 328 329 328 329 328 326 326 326 325
339 339 338 337 337 337 336 336 335 334 334 334 333 333 329 329 331 330 330 330 332 329 329 329 329 328 327 326 325 325 326 327 327 327 326 326 325 325
344 340 340 338 337 337 336 337 336 335 334 336 335 334 332 332 334 332 333 331 332 329 327 327 328 327 327 325 323 321 321 323 324 324 324 323 322 322
345 342 340 340 338 335 335 334 334 336 335 335 335 335 334 334 334 332 333 333 330 329 328 327 327 326 326 321 320 317 317 317 317 319 322 321 320 320
347 344 342 340 339 334 336 337 336 336 336 335 335 335 335 335 335 334 333 332 330 328 328 327 327 326 322 322 318 316 317 319 318 317 318 318 318 319
348 346 344 340 337 335 336 338 338 338 336 337 336 336 335 335 332 333 332 331 330 328 328 330 329 328 327 327 324 319 319 319 319 319 317 317 313 312
350 348 346 343 340 338 335 334 337 339 337 337 337 337 337 334 333 332 331 331 330 328 329 329 330 328 328 327 326 322 320 320 319 319 319 317 310 311
350 350 347 344 344 339 339 335 334 334 335 339 338 338 337 332 333 333 332 331 331 331 330 329 328 327 324 323 322 318 315 315 315 315 315 314 312 313
350 350 348 346 344 342 342 339 337 335 335 335 338 339 335 334 331 332 333 333 332 330 330 327 324 323 322 320 318 315 312 311 310 310 310 311 312 314
351 350 348 347 346 344 342 341 339 339 336 336 336 334 333 330 329 332 332 330 328 326 325 323 321 321 319 318 316 313 309 308 308 309 310 312 314 314
351 349 347 346 346 345 342 343 342 341 339 336 334 334 332 330 329 329 329 326 323 322 321 319 318 317 315 312 313 311 310 309 309 308 310 312 313 313
350 347 347 346 345 343 341 344 342 341 338 337 335 334 331 329 326 321 323 322 321 320 319 318 316 314 312 312 311 310 309 309 310 310 310 310 311 313
347 347 348 349 344 343 340 341 340 337 336 335 333 331 329 324 322 322 321 320 319 318 318 311 313 311 310 310 309 308 308 309 310 310 310 313 314 312
347 347 348 347 344 340 339 338 335 335 334 332 331 329 325 322 321 319 317 314 314 313 311 308 311 310 310 309 308 308 308 308 308 311 313 313 312 310
347 344 345 342 339 336 334 334 335 335 333 332 330 326 322 322 320 319 318 317 316 314 312 306 305 308 307 307 309 309 307 307 309 312 312 311 308 307
339 337 335 333 331 331 332 331 334 330 330 329 326 323 321 321 321 319 318 317 314 313 310 308 309 306 307 309 308 307 306 309 311 311 310 308 307 306
338 333 333 333 333 333 331 330 330 329 328 326 324 322 322 322 321 318 315 313 312 310 308 307 307 307 308 308 307 307 307 308 309 308 308 307 306 306
334 335 334 333 333 331 331 330 329 327 325 324 323 322 323 322 318 315 313 311 309 308 307 307 307 307 308 309 307 307 309 308 307 306 305 305 305 305
336 335 334 333 331 329 329 329 327 325 323 323 323 323 321 319 315 313 311 309 308 307 307 307 307 307 307 307 307 308 308 309 306 305 304 304 303 303
335 335 334 332 330 329 327 325 325 324 324 323 322 319 316 314 313 311 308 306 306 306 307 307 307 303 305 309 309 306 307 306 304 304 303 303 303 305
334 334 334 332 329 326 325 324 323 321 321 319 317 314 313 312 310 308 307 307 306 306 306 306 306 307 308 307 306 306 306 304 303 301 301 301 302 303
335 334 332 329 325 325 323 322 320 318 316 315 314 312 311 309 308 307 307 306 305 305 305 305 306 306 306 307 306 306 305 303 302 300 301 300 300 300

GFSNE_925_thetae_030.txt.gz
Theta_e
344 344 340 337 339 337 337 336 335 337 337 337 333 334 334 335 336 337 337 337 335 330 329 328 327 326 327 327 327 327 327 329 330 329 329 329 328 327
344 342 343 336 338 338 337 336 335 335 337 334 334 334 334 334 336 335 336 333 328 327 327 326 326 327 328 328 327 327 327 327 327 328 328 327 326 326
348 344 344 341 337 336 337 336 336 336 335 335 335 336 338 337 334 334 334 334 333 332 328 329 329 328 328 328 327 327 326 323 322 323 324 325 325 325
352 349 344 342 343 338 337 337 335 335 334 336 335 337 338 338 337 338 335 333 333 333 330 327 327 326 327 327 327 324 320 318 318 318 321 323 323 322
353 352 348 343 343 338 338 335 336 337 337 335 335 337 336 337 338 338 337 336 334 333 331 328 328 328 326 326 325 321 318 317 317 318 318 318 318 319
355 353 350 347 344 343 340 339 336 336 336 336 335 334 336 336 335 333 336 336 334 333 332 330 329 329 328 326 322 323 319 317 318 319 318 317 317 316
355 355 353 350 347 345 343 340 338 339 334 336 337 336 336 336 337 335 334 334 334 334 333 332 331 331 330 328 327 327 324 319 319 319 319 319 319 318
356 356 354 350 348 344 341 339 340 340 339 336 337 337 337 338 337 336 334 334 333 334 334 332 332 331 330 328 328 327 325 322 320 319 319 318 319 317
356 356 355 353 350 348 341 339 336 337 338 339 339 338 337 339 339 337 336 335 334 333 335 333 330 329 327 325 324 323 316 315 314 313 312 312 312 312
356 357 356 355 353 350 348 342 339 339 337 336 338 340 340 340 340 337 337 335 335 334 333 332 328 324 324 323 322 319 316 311 310 308 308 309 310 311
355 356 356 357 355 350 349 347 346 344 341 337 335 338 340 338 337 336 335 334 333 331 330 327 324 322 322 320 319 317 313 311 310 308 307 308 308 312
356 356 354 355 355 352 348 349 348 348 344 339 337 337 337 334 332 334 334 333 331 326 326 324 320 319 320 318 315 314 313 312 310 309 310 309 308 310
352 355 355 354 353 351 347 346 347 348 344 342 339 339 338 336 333 332 333 327 324 323 324 322 319 318 317 315 313 312 311 311 311 311 311 311 310 311
354 352 354 353 349 348 346 344 345 345 344 343 341 339 337 335 334 330 326 324 323 323 323 322 318 317 315 314 312 310 310 310 310 310 311 311 312 314
354 354 353 350 348 344 344 343 344 343 343 341 339 338 335 333 329 326 326 325 324 323 320 319 317 314 311 310 310 310 310 310 310 310 310 313 314 313
353 352 349 349 346 341 340 339 341 340 339 339 338 335 333 329 326 324 323 322 321 320 320 317 315 313 310 309 309 309 310 310 309 311 313 313 312 311
346 346 342 337 335 337 336 337 338 339 338 338 336 333 330 328 325 323 323 323 321 319 317 317 315 314 311 310 309 310 310 310 309 310 311 311 310 309
340 336 335 335 335 334 335 334 337 338 338 336 334 331 328 326 324 324 323 322 320 317 316 313 310 309 310 310 310 311 310 309 309 309 309 309 307 307
341 339 336 335 335 334 336 336 337 336 334 333 331 329 326 325 324 325 322 319 317 315 313 311 309 310 311 312 310 308 309 309 309 309 308 307 307 306
340 337 337 336 336 335 335 335 335 333 332 331 329 326 325 325 325 322 319 317 315 312 311 310 309 310 311 311 309 308 310 310 309 307 306 305 305 304
339 338 337 337 337 336 335 335 333 331 330 328 326 326 325 324 321 318 317 313 311 311 311 310 310 309 308 307 311 311 309 308 307 306 304 303 303 305
339 339 338 337 336 335 334 332 331 330 327 327 325 324 322 320 318 316 314 312 309 308 309 309 309 309 309 310 310 309 309 308 307 305 302 302 302 303
339 339 337 336 337 335 332 330 329 327 326 325 322 320 319 317 315 314 312 310 310 309 309 309 308 308 309 309 309 309 309 308 306 305 303 302 300 301

GFSNE_925_thetae_036.txt.gz
Theta_e
352 348 338 343 341 341 339 338 340 348 348 338 336 336 336 336 336 336 336 337 335 335 333 331 329 329 328 327 327 327 328 328 328 326 326 324 324 326
354 351 343 338 339 340 339 338 337 337 345 339 337 337 335 336 337 336 337 337 337 337 335 330 329 329 326 326 327 328 328 327 327 325 321 320 320 322
354 350 348 340 340 340 339 339 339 337 340 336 338 337 337 336 337 336 334 336 336 335 332 329 327 326 326 328 327 327 327 327 325 321 318 316 317 316
355 350 351 346 340 341 344 339 338 339 339 341 338 340 337 337 335 338 337 336 337 338 336 332 332 330 329 328 327 327 326 326 324 320 317 317 317 317
360 355 352 351 347 339 340 341 340 339 341 339 339 339 342 341 339 337 337 338 334 335 336 335 333 332 330 330 330 328 327 324 322 321 318 317 318 318
361 360 357 354 349 346 340 339 340 341 338 339 340 338 338 342 340 341 341 340 338 339 336 335 334 333 331 333 331 329 327 325 322 324 319 319 320 320
359 361 360 359 355 350 348 344 342 338 343 340 340 340 339 340 343 340 339 338 339 338 337 335 334 334 333 333 332 332 330 326 325 326 323 322 321 320
362 360 361 360 359 355 351 347 343 342 341 340 341 342 341 340 341 339 339 338 339 337 335 335 336 335 335 334 332 330 330 328 325 318 317 315 314 313
363 362 362 361 359 358 354 350 346 346 342 339 343 344 344 342 342 340 340 340 339 338 337 336 335 335 334 331 325 323 322 321 318 314 311 309 308 306
362 362 362 361 361 359 356 351 349 347 346 344 344 344 345 343 343 342 340 339 339 339 339 336 335 334 330 325 324 323 321 319 315 314 312 311 311 311
362 362 362 362 361 359 358 353 349 349 347 346 344 346 347 344 343 342 342 341 342 339 338 337 335 334 325 323 323 322 319 317 316 313 311 311 311 311
360 362 362 362 362 361 358 357 354 350 348 347 343 342 342 342 342 343 342 341 339 338 337 337 336 328 323 321 321 319 318 317 314 313 312 312 312 311
359 360 361 361 361 361 360 357 357 355 351 348 346 342 340 338 339 339 340 339 338 338 334 333 329 324 321 321 319 319 316 314 313 313 312 312 312 312
361 359 359 360 360 360 360 359 357 356 355 350 347 341 340 339 339 337 337 339 338 337 330 327 325 323 320 320 320 317 313 312 312 312 313 311 312 315
363 362 360 359 359 359 360 359 358 357 355 352 347 344 343 341 340 337 339 336 336 329 327 326 323 321 320 319 319 315 313 312 312 312 312 313 312 311
365 363 361 360 357 354 357 359 357 355 355 352 349 346 344 342 341 340 339 336 334 330 327 324 319 317 317 317 316 313 313 312 311 313 313 311 311 311
363 360 359 358 358 349 348 349 353 355 353 351 348 345 344 342 341 339 337 333 331 328 326 325 322 321 317 314 315 313 311 312 314 312 311 311 312 311
355 358 359 357 353 351 346 348 351 352 351 349 346 344 342 340 338 336 333 330 328 326 326 327 324 322 319 316 313 311 313 314 313 311 311 312 310 309
356 354 357 356 350 350 347 348 349 349 348 345 344 340 337 338 334 332 331 328 327 327 326 325 324 322 321 318 314 315 313 313 311 310 313 311 310 308
353 354 353 353 350 347 345 346 346 344 344 344 339 337 337 335 333 331 329 327 326 327 325 321 321 319 315 315 316 313 313 311 309 313 311 309 308 307
341 347 352 352 350 347 346 345 344 343 344 342 340 339 336 333 332 331 328 327 327 326 323 321 317 315 313 313 313 311 309 311 311 312 310 309 307 306
337 337 337 338 345 346 345 343 342 342 341 340 339 337 334 332 331 329 328 327 326 324 321 319 316 314 313 313 313 311 312 313 311 311 310 308 306 305
338 339 339 339 340 342 342 342 342 340 339 338 337 335 334 332 329 328 327 325 321 319 318 315 313 312 312 312 312 313 312 311 311 312 310 307 306 305

GFSNE_925_thetae_039.txt.gz
Theta_e
346 343 341 341 342 340 339 338 339 337 338 338 336 336 336 336 336 337 336 335 334 333 332 332 331 330 329 328 327 327 327 328 327 326 326 322 319 319
355 349 340 340 342 342 341 339 338 337 334 340 336 336 337 336 336 336 336 335 336 336 336 336 332 330 329 327 325 327 327 326 326 326 323 318 316 316
358 355 351 338 337 339 342 339 338 337 336 336 338 337 336 336 337 336 337 338 337 337 336 335 330 329 327 326 327 327 327 326 326 324 320 317 316 317
358 356 353 349 343 333 340 340 338 338 337 336 339 340 336 336 336 337 336 334 334 335 337 337 335 331 331 330 329 328 327 327 326 324 320 318 317 318
356 358 355 350 347 344 337 342 341 338 338 340 339 340 337 337 337 336 336 334 335 336 336 334 334 332 332 331 331 331 329 328 326 324 321 320 318 319
357 360 358 353 349 347 346 339 341 342 340 341 340 339 339 340 339 338 338 337 338 336 336 338 336 334 333 333 332 332 331 328 326 324 325 325 322 321
356 356 360 359 356 352 348 345 338 340 343 339 339 340 338 339 343 341 339 339 339 338 338 338 335 334 334 334 333 332 330 330 328 326 325 322 320 319
360 357 356 360 360 358 353 350 346 340 339 344 339 338 339 340 340 342 340 341 340 337 339 339 336 335 335 335 334 334 331 331 329 325 319 312 312 311
360 360 358 357 360 360 358 356 353 350 344 337 341 339 338 338 338 342 341 340 338 338 337 335 337 336 336 334 334 330 324 323 323 319 313 311 310 310
362 361 361 359 358 360 359 358 354 352 351 346 339 338 340 338 340 339 341 339 339 338 337 336 336 336 334 331 325 324 323 322 318 315 313 311 311 311
361 361 362 361 360 359 360 358 355 352 352 352 347 343 341 340 345 345 341 341 340 340 339 339 337 336 334 327 324 323 322 319 316 315 312 311 311 311
361 360 361 361 361 361 360 359 355 353 351 349 347 346 346 344 345 345 342 341 339 339 338 338 336 335 329 324 322 322 321 318 316 315 313 312 311 311
361 360 359 359 361 362 361 359 358 356 352 350 349 347 345 345 347 345 344 342 340 339 336 337 336 336 327 322 322 320 319 317 317 314 313 312 313 312
363 362 360 358 358 359 362 362 360 358 355 350 349 347 344 342 343 343 343 342 341 340 338 334 333 333 323 320 320 319 316 314 313 312 312 313 312 315
365 364 363 362 360 358 358 359 361 360 357 355 351 349 344 344 343 341 340 341 340 339 338 333 333 326 322 320 319 318 317 313 311 311 312 312 312 311
367 366 366 364 362 361 360 358 358 355 357 357 356 352 346 342 340 339 338 338 337 337 337 331 327 324 321 319 318 318 316 312 311 311 314 311 310 310
362 358 359 360 358 358 355 353 353 351 353 356 357 354 344 342 340 339 339 338 336 332 329 327 326 322 318 317 316 315 314 313 311 312 312 310 311 311
356 354 355 358 360 359 359 357 349 349 352 354 355 351 345 342 341 339 338 336 335 331 328 327 325 322 320 318 315 311 312 311 312 314 311 310 312 310
348 353 353 354 357 359 359 358 353 350 350 352 353 347 345 342 340 338 336 335 333 329 328 327 326 323 318 316 316 314 313 312 314 310 310 312 311 308
338 341 344 347 351 354 356 355 354 351 350 351 352 347 343 341 338 336 335 334 331 329 327 326 325 323 322 318 317 315 314 315 312 311 310 312 310 308
334 335 336 336 337 337 340 344 349 350 350 350 350 346 343 339 335 335 333 331 329 328 326 325 326 325 324 320 313 312 313 314 313 310 311 312 310 308
334 337 337 339 339 338 338 339 340 343 346 347 348 346 338 335 334 332 329 328 328 327 326 324 324 324 320 313 312 312 312 311 311 311 311 311 308 304
336 337 337 337 337 337 339 339 340 341 341 341 344 336 334 333 331 330 329 329 327 326 324 322 318 316 314 314 313 312 311 310 312 311 311 310 309 307

GFSNE_925_thetae_042.txt.gz
Theta_e
346 344 341 341 341 341 338 338 338 335 333 339 338 337 337 337 337 338 336 334 333 332 331 330 331 331 330 329 328 327 326 327 327 326 326 323 318 316
352 346 343 340 340 341 342 339 338 337 331 337 339 337 337 336 337 337 337 336 335 334 334 333 333 333 331 328 328 326 326 327 326 326 325 320 316 316
355 355 349 338 339 340 342 341 340 338 335 336 336 337 336 336 336 336 336 335 335 335 335 335 336 334 330 328 327 326 327 327 326 326 324 319 317 317
356 356 356 354 348 336 339 339 341 339 337 335 335 337 337 336 336 336 336 335 336 336 336 336 335 336 332 330 330 329 328 328 327 326 324 320 318 319
357 356 356 356 354 349 338 335 337 341 339 338 337 337 339 338 337 336 336 336 336 335 334 335 337 336 336 332 331 330 329 329 328 326 324 322 322 320
355 355 354 355 356 354 350 343 337 337 343 339 339 338 339 338 336 336 337 336 336 335 335 335 336 335 335 333 332 332 330 330 329 328 325 324 325 322
355 354 355 355 356 356 355 352 346 343 339 342 341 340 340 340 340 338 337 336 337 337 336 335 336 337 335 334 333 333 332 330 329 329 326 324 317 313
356 355 353 354 354 355 357 357 355 352 344 340 340 338 339 338 338 339 339 338 337 338 338 338 337 337 336 334 334 334 333 331 331 330 325 318 310 309
357 356 356 355 354 354 354 356 358 357 355 348 340 339 338 338 338 338 340 340 339 339 339 339 337 338 337 335 334 335 334 330 324 323 321 313 311 311
358 358 358 357 356 355 356 356 357 357 357 354 348 344 341 339 337 336 337 339 339 339 339 337 338 338 336 336 335 333 332 324 322 321 315 312 311 311
359 359 359 359 358 358 356 356 356 356 355 357 357 355 351 343 341 338 338 339 338 339 338 338 336 335 335 335 333 327 325 323 321 317 314 312 311 311
360 361 360 360 360 360 359 357 357 357 355 353 353 354 354 351 345 339 339 340 339 338 338 336 337 337 334 335 333 326 324 322 319 316 315 312 311 311
360 360 360 360 360 360 360 360 359 359 358 356 352 350 349 347 345 344 342 341 341 339 340 337 338 336 333 326 329 325 323 322 319 317 315 313 312 312
362 362 361 361 360 359 359 359 360 360 358 358 355 352 351 346 344 344 344 344 343 342 340 339 337 336 334 323 322 323 323 321 319 317 315 313 312 312
365 364 364 363 362 362 360 359 358 358 356 357 358 356 352 351 347 345 344 344 343 342 341 338 337 334 333 330 320 321 321 320 318 315 312 312 312 312
367 366 366 364 363 362 360 360 360 355 352 355 357 358 357 352 347 344 343 343 342 339 338 339 336 335 333 325 321 317 316 314 313 312 312 313 312 310
364 361 360 358 358 359 358 358 356 354 350 350 353 356 357 356 348 345 342 341 341 338 332 337 337 336 333 323 322 320 317 315 312 311 312 312 310 310
354 354 354 354 354 356 358 358 359 357 354 351 352 353 354 356 350 343 341 341 340 338 335 330 329 321 322 323 323 317 316 314 311 311 312 311 310 310
343 345 347 347 349 351 352 354 356 356 357 353 352 353 353 353 352 344 341 339 338 334 332 330 325 323 319 318 316 314 312 313 311 313 313 311 310 310
334 334 335 335 336 336 336 336 337 338 340 342 347 349 349 351 350 346 341 339 337 334 332 328 325 322 321 319 316 316 312 311 312 313 312 310 310 310
333 334 335 335 335 337 335 336 337 337 338 338 339 340 344 346 346 346 344 338 334 331 329 327 325 324 324 321 316 314 315 314 314 312 310 311 311 309
334 335 336 336 336 336 336 336 336 337 338 337 339 340 341 338 334 333 334 332 332 331 328 327 326 325 322 320 314 313 314 314 314 312 312 311 311 307
335 334 334 335 337 337 336 336 337 338 336 334 334 337 337 333 331 329 330 332 331 327 326 323 323 320 320 320 317 312 312 313 314 313 313 311 310 310

GFSNE_925_thetae_045.txt.gz
Theta_e
348 346 343 340 341 341 340 337 336 333 331 338 338 338 337 336 336 336 336 337 334 331 331 330 329 328 328 328 327 327 327 326 327 326 326 324 319 316
350 347 346 343 341 340 341 341 338 336 331 336 337 338 338 337 337 336 336 337 337 333 333 332 332 331 330 330 329 328 328 326 327 326 325 323 318 317
353 352 349 345 343 342 340 341 341 339 334 336 335 337 337 337 336 337 336 336 337 336 334 334 333 333 333 332 330 329 327 326 327 326 326 323 319 319
354 355 352 352 350 345 340 340 340 340 339 336 337 336 335 336 336 336 336 336 336 335 335 335 334 334 335 335 333 330 328 328 328 327 326 323 320 320
351 354 354 353 352 353 352 349 339 338 339 339 338 337 337 336 336 336 336 336 336 335 335 335 335 334 335 336 335 333 329 329 329 328 326 324 321 323
352 350 351 353 354 352 352 353 352 347 338 338 340 340 338 337 338 338 338 337 336 335 335 335 335 334 334 336 334 335 331 329 330 329 327 325 322 324
354 352 351 352 351 351 352 351 352 352 348 343 338 339 340 339 339 338 337 336 336 335 336 335 335 335 334 333 335 334 332 330 330 329 328 326 323 314
354 352 352 352 353 353 351 351 353 352 348 344 343 339 338 337 339 338 337 336 335 336 336 336 336 335 334 334 336 334 334 332 331 330 329 326 315 309
355 354 354 353 354 354 353 353 352 353 354 352 346 346 343 340 339 337 338 338 337 337 337 337 337 337 337 335 336 336 333 334 332 331 330 325 312 310
357 356 356 356 356 355 355 355 355 355 354 353 351 351 348 346 340 340 339 338 338 337 337 337 337 337 338 336 336 336 334 334 333 330 324 321 312 310
357 357 357 357 356 356 356 355 356 356 355 355 354 354 353 352 347 340 337 336 337 337 337 338 338 337 337 337 337 337 335 334 334 325 322 317 312 311
357 358 358 358 358 358 357 356 355 356 356 355 355 355 355 355 352 345 343 338 338 338 337 337 338 337 334 336 336 335 335 333 330 323 320 315 312 311
357 358 358 358 359 359 359 358 358 358 358 357 357 356 354 351 352 353 350 342 341 340 342 339 337 335 335 328 334 335 330 331 328 323 319 315 312 311
359 359 360 360 360 360 359 359 359 359 358 357 358 358 358 355 352 349 351 354 345 343 344 341 338 336 333 327 329 334 327 332 326 323 318 316 314 312
362 362 362 363 362 362 361 361 360 358 352 353 355 356 357 358 357 354 350 347 348 347 342 341 339 337 335 333 327 329 327 330 325 323 319 316 315 313
365 364 363 363 362 363 362 362 361 360 356 351 353 354 355 356 357 356 352 347 344 345 343 342 340 337 335 334 334 323 325 324 324 322 320 317 315 313
364 361 360 358 359 358 356 356 356 356 355 354 351 350 352 352 354 355 354 350 347 346 345 340 339 337 337 333 327 323 323 321 322 321 318 313 312 312
360 358 355 353 351 351 351 351 351 352 350 348 348 350 350 350 350 351 351 351 347 346 345 337 335 329 325 325 330 322 319 316 317 317 313 312 312 311
351 348 346 345 341 337 336 336 336 337 336 337 338 338 339 341 343 345 349 347 346 345 344 336 331 333 328 325 318 323 317 315 313 312 312 312 311 310
335 334 334 334 334 332 333 333 332 334 334 335 336 336 337 337 338 340 341 343 343 344 340 331 330 329 328 320 316 319 323 318 312 311 310 310 310 310
332 333 334 334 333 334 335 334 333 335 335 336 335 334 335 339 339 339 336 334 335 331 327 327 330 332 325 321 317 315 315 313 314 311 311 310 309 308
334 334 334 334 334 336 336 334 334 332 335 337 336 333 336 335 334 330 330 330 330 330 330 325 324 323 321 320 314 314 311 311 311 311 311 312 310 306
334 334 334 335 336 335 334 334 334 333 333 334 335 334 335 331 329 330 330 330 329 327 324 322 320 321 320 318 313 312 314 312 312 311 311 311 311 310

GFSNE_925_thetae_048.txt.gz
Theta_e
349 347 345 342 340 338 336 339 336 340 339 336 337 337 337 337 337 336 336 336 336 336 332 329 329 329 328 328 328 327 327 327 327 326 326 325 322 316
351 350 348 345 344 341 341 341 338 336 339 335 336 336 337 337 337 337 337 336 336 336 336 335 331 330 330 329 329 329 328 328 328 327 326 325 321 318
351 352 351 349 345 344 343 340 340 340 336 338 337 337 336 336 335 337 337 336 336 336 336 336 335 332 332 331 331 331 330 329 328 327 326 325 322 319
351 350 351 352 352 351 350 345 341 340 339 338 339 339 339 338 336 335 335 335 335 336 336 335 336 335 333 333 333 333 332 330 328 327 327 326 323 320
353 351 350 350 352 352 351 351 350 346 341 338 338 338 339 339 338 337 336 335 335 335 336 335 335 335 335 334 334 334 334 333 330 329 327 326 325 321
352 353 352 351 349 350 351 351 351 351 351 348 341 337 336 336 337 338 338 337 337 336 336 336 335 335 335 335 334 334 335 334 332 329 328 327 326 323
352 353 353 353 351 350 350 350 350 351 350 347 345 344 341 339 338 338 337 337 338 337 337 336 336 335 335 335 334 333 335 335 334 330 329 328 327 324
350 350 351 353 352 351 351 351 352 352 349 347 346 346 346 344 343 340 340 338 339 337 336 336 336 335 335 335 336 334 333 334 334 330 332 328 327 324
353 353 353 352 352 352 352 352 352 353 354 353 350 349 348 348 346 342 339 340 340 340 337 337 336 335 336 336 336 336 333 335 334 332 333 328 328 319
351 352 353 354 355 355 354 354 354 354 354 355 354 354 353 353 350 347 346 342 341 340 339 338 338 337 336 336 336 336 335 335 335 332 331 331 327 314
352 352 353 353 353 354 355 354 355 355 354 355 356 356 356 356 355 350 345 338 340 341 340 337 340 338 337 336 336 336 337 335 335 332 329 333 329 312
353 353 354 355 355 355 356 355 355 356 356 356 356 356 356 356 356 355 350 346 343 342 342 338 338 338 337 336 337 337 336 335 336 332 330 333 328 311
354 354 355 354 355 356 357 356 356 358 357 357 356 356 357 356 355 356 357 353 347 346 348 344 342 339 337 336 334 335 336 336 334 328 331 331 327 313
355 355 356 357 357 358 359 359 359 359 358 355 356 356 357 358 358 357 356 353 351 351 353 348 342 341 338 338 333 331 332 333 331 328 332 329 326 315
356 357 358 359 360 360 361 361 360 358 356 350 352 353 355 356 356 356 356 356 356 352 348 348 346 343 340 338 335 331 331 330 328 329 330 328 324 316
361 361 358 359 360 361 361 361 361 359 355 353 352 352 352 351 350 351 351 351 351 351 350 347 345 343 342 339 337 332 332 328 328 327 329 328 323 316
362 356 356 355 356 356 356 355 353 352 351 350 348 347 346 344 344 344 345 345 346 348 347 347 347 345 343 343 339 333 330 326 326 325 324 322 323 317
359 356 354 355 354 351 349 347 342 339 338 336 336 338 336 337 336 336 336 339 339 340 344 346 345 343 340 333 325 331 324 321 321 322 322 318 318 316
355 354 351 348 345 340 336 335 334 333 333 333 333 335 334 335 335 336 337 339 339 340 341 342 343 344 336 320 320 326 328 321 320 317 320 320 318 315
346 343 338 335 333 332 333 333 333 332 332 332 334 335 335 333 336 338 337 334 331 333 332 331 333 327 324 325 319 319 327 324 319 314 316 315 312 312
333 333 333 332 332 332 333 333 332 332 332 332 335 338 334 336 334 333 332 330 329 327 327 324 327 331 328 326 318 313 313 317 319 321 314 309 308 309
333 333 333 333 333 333 335 332 332 332 332 333 333 334 334 333 331 331 332 331 328 325 322 323 328 327 325 323 318 313 312 315 319 317 313 311 310 309
330 330 331 331 332 332 333 333 332 332 333 332 333 335 334 333 330 330 330 330 327 326 324 322 324 324 321 318 317 313 311 312 313 311 309 310 311 311

GFSNE_925_thetae_051.txt.gz
Theta_e
353 351 349 347 344 342 341 341 342 345 343 341 341 339 338 338 337 337 337 336 336 336 335 335 330 329 329 329 328 328 328 327 327 327 326 326 325 320
353 354 352 351 348 346 345 343 342 342 344 341 341 341 337 337 336 337 337 337 337 336 336 336 336 335 331 330 330 329 329 328 328 328 327 326 326 321
355 355 355 353 351 349 347 346 344 343 343 341 343 341 339 338 338 337 336 335 337 337 336 336 336 336 336 334 331 330 330 329 329 328 327 327 326 322
357 356 355 354 354 353 351 350 347 346 344 344 342 343 342 341 339 339 338 339 338 338 334 335 335 336 335 336 335 332 332 331 330 330 328 327 326 324
357 357 356 356 356 354 355 353 352 351 348 346 345 344 344 343 342 341 339 339 339 338 337 336 335 335 335 335 336 334 333 332 332 332 329 328 327 326
355 357 357 357 357 357 356 356 355 354 352 352 350 349 348 346 344 343 343 343 342 341 340 338 337 336 335 336 335 335 334 333 333 333 332 328 329 328
356 356 357 356 354 354 356 356 355 355 353 351 350 350 349 349 348 348 347 347 346 345 344 343 342 340 338 336 336 335 335 334 333 334 333 330 330 330
356 356 355 352 348 348 349 352 353 356 356 355 353 353 355 354 353 352 352 351 352 350 347 344 343 343 342 341 339 336 335 335 334 333 335 332 330 330
356 356 355 353 353 353 353 350 351 351 352 353 356 357 357 357 356 356 355 355 353 352 351 349 348 346 344 345 342 339 336 335 335 332 335 333 331 330
353 353 355 355 355 356 356 356 357 357 356 353 352 353 355 356 357 358 358 356 353 352 350 349 350 349 347 345 343 341 340 337 335 334 334 333 332 330
353 353 353 353 352 352 354 354 355 355 355 355 355 356 356 355 355 354 352 352 350 349 350 349 349 347 347 348 346 341 339 339 337 335 334 333 332 330
352 353 352 352 352 352 353 354 356 355 357 359 361 360 359 358 358 357 355 349 351 353 355 353 351 350 347 347 345 343 340 338 337 337 335 332 332 330
353 353 353 353 353 352 352 354 356 357 360 360 359 358 358 358 358 358 357 357 353 353 354 353 351 349 349 346 345 343 341 339 337 334 334 330 331 331
357 357 358 357 356 355 355 356 357 358 355 355 355 356 356 356 357 357 357 357 356 354 353 353 352 350 348 347 344 342 338 337 335 330 330 332 330 331
357 358 358 358 357 357 358 358 359 358 357 352 351 352 353 355 355 353 354 350 350 351 352 351 350 350 349 347 345 344 336 334 332 330 328 329 330 330
356 355 356 356 357 358 358 359 359 359 358 353 352 351 352 353 348 345 343 343 343 342 342 343 343 346 346 346 345 345 345 334 332 331 328 325 330 330
357 354 355 354 355 355 356 357 356 354 352 351 349 348 344 341 340 340 340 339 340 341 341 340 340 341 343 344 343 342 339 330 329 329 324 324 328 328
357 357 357 355 354 355 353 350 350 347 346 340 338 338 338 338 338 337 338 339 339 339 338 338 339 338 340 327 328 327 328 327 324 326 327 322 318 322
358 358 355 353 350 349 345 343 344 341 339 338 338 337 337 337 335 336 337 337 336 333 334 333 333 332 335 324 322 321 321 321 322 322 323 322 317 319
351 351 349 348 341 340 341 340 339 338 337 336 336 337 338 336 334 336 337 335 333 333 334 328 324 328 330 330 321 314 322 324 324 317 316 319 319 321
340 338 336 338 339 338 337 336 336 336 335 335 334 334 334 334 335 337 336 335 332 333 332 327 326 326 329 326 321 315 317 319 321 320 317 316 315 316
334 334 335 335 335 335 334 335 335 334 334 334 334 335 335 335 335 335 334 334 333 329 326 327 329 330 332 332 323 315 312 315 318 317 316 316 316 316
332 332 332 332 333 333 333 333 332 334 333 333 333 333 335 334 335 335 334 333 333 332 327 329 329 327 323 324 319 315 312 312 312 313 314 316 316 312

GFSNE_925_thetae_054.txt.gz
Theta_e
353 353 351 346 345 343 343 343 343 346 344 345 340 344 342 342 343 344 345 345 342 338 336 335 335 333 330 330 330 329 329 328 328 327 327 327 327 325
353 354 354 348 348 346 345 344 344 343 345 340 341 342 343 342 341 342 344 343 344 339 337 336 336 335 335 334 330 330 330 329 329 328 328 327 327 326
355 354 357 357 352 348 347 346 345 344 344 341 340 341 347 349 346 345 345 345 343 342 339 336 337 336 336 336 335 334 330 330 329 329 329 328 327 326
357 357 356 354 357 356 351 348 346 345 345 348 344 342 341 343 345 348 348 345 342 340 340 339 337 335 335 336 336 335 335 332 330 330 330 329 328 326
356 356 356 357 356 354 353 351 350 352 352 352 350 347 346 346 347 349 349 347 347 345 343 342 340 339 337 335 335 335 335 336 334 331 331 330 329 327
356 356 357 358 358 359 359 358 358 357 353 353 351 348 347 345 347 349 350 349 348 348 347 347 345 343 342 341 338 335 335 335 336 333 331 331 330 328
355 357 357 358 359 359 359 358 358 357 354 351 349 348 348 348 350 350 352 352 351 352 352 352 352 350 348 345 344 342 338 335 335 335 333 332 331 329
356 356 357 357 358 357 356 353 353 359 361 358 353 352 357 356 354 355 354 355 358 355 356 356 355 354 354 352 350 346 345 344 337 335 334 332 331 331
355 355 355 352 355 357 357 356 355 353 352 354 358 358 359 359 360 362 359 361 362 362 361 359 358 357 356 356 355 353 349 345 344 341 335 333 331 331
352 353 355 354 353 353 355 356 356 357 358 358 356 357 356 356 358 360 360 359 360 359 358 358 357 357 356 355 354 353 352 350 347 342 340 336 332 332
352 353 354 355 355 355 355 355 354 353 351 351 352 352 354 356 358 357 357 358 360 359 359 359 360 359 358 356 355 354 352 350 348 345 341 339 336 332
352 354 353 353 354 354 355 354 356 353 352 353 355 360 363 363 361 360 358 357 358 358 359 360 358 355 354 352 351 352 351 348 347 346 344 338 337 332
351 349 350 351 351 351 350 353 354 354 356 359 362 364 363 362 362 362 361 359 357 357 357 356 354 354 354 352 350 350 349 348 347 346 345 340 338 332
352 350 352 353 354 354 354 354 354 354 356 358 360 362 361 361 360 359 360 360 359 358 356 354 354 352 353 352 351 349 349 346 344 344 343 342 336 331
355 357 358 360 360 359 358 357 357 354 357 359 359 357 357 356 358 357 357 353 348 348 345 344 344 346 347 350 349 348 347 345 344 341 338 330 324 322
353 355 358 359 359 360 361 360 358 358 358 357 356 356 355 356 356 351 344 343 342 342 342 343 343 343 344 345 345 344 343 343 342 337 332 324 320 317
356 357 358 358 359 361 361 362 361 359 357 356 352 354 356 353 344 342 342 341 342 342 341 339 339 339 338 332 329 330 329 330 331 330 327 319 316 316
357 360 360 360 360 361 361 360 357 356 354 353 354 350 346 343 342 341 340 340 341 341 339 339 336 336 336 331 324 323 325 324 324 322 319 317 316 317
362 362 363 364 362 358 357 355 355 350 348 348 346 344 341 341 340 340 339 341 341 339 339 337 333 334 337 338 327 319 321 323 323 323 322 322 318 316
358 359 358 355 354 350 348 348 348 348 346 344 342 341 341 341 339 338 340 341 339 338 338 337 334 333 334 332 326 319 321 323 322 318 318 319 317 317
350 350 349 346 345 344 344 344 345 344 341 340 340 339 339 338 338 337 339 337 336 338 337 336 334 332 333 331 332 320 319 322 322 321 316 316 314 315
344 343 340 341 341 340 340 341 340 339 339 338 338 338 337 338 338 338 337 337 337 337 336 335 334 333 333 333 334 322 316 316 318 319 319 320 318 315
342 338 337 336 336 337 338 339 338 337 336 336 336 335 335 336 337 337 336 335 335 335 334 334 333 332 330 328 326 322 314 313 314 315 315 318 320 321

GFSNE_925_thetae_060.txt.gz
Theta_e
352 349 344 346 347 343 343 344 346 353 352 346 346 344 344 343 344 344 344 343 344 344 345 345 344 343 340 336 334 332 331 330 329 329 329 330 330 328
354 354 350 346 348 349 346 346 345 345 353 344 345 344 345 344 344 344 345 343 344 345 345 345 344 343 343 342 341 338 335 333 331 329 329 329 329 329
355 356 352 352 351 354 352 347 346 346 349 346 346 345 345 345 344 345 345 346 348 349 349 348 346 345 344 343 342 342 341 339 337 334 331 329 329 329
355 352 357 358 357 351 352 353 354 352 350 351 348 345 345 351 350 349 349 349 350 350 351 351 351 348 347 345 344 343 342 342 341 339 336 333 330 329
358 357 354 355 355 359 357 356 352 352 352 350 352 356 354 351 350 351 351 350 350 352 353 352 353 352 353 351 350 349 347 344 345 344 341 340 336 331
358 354 357 358 358 358 357 355 355 356 355 356 355 355 355 354 352 355 353 351 353 358 355 350 352 357 362 361 361 359 356 354 349 345 345 344 340 338
357 357 357 358 358 358 360 360 360 360 361 361 360 359 355 353 354 355 358 359 356 354 355 361 361 360 361 361 360 359 359 357 356 356 353 348 344 341
359 358 358 357 355 354 356 359 358 358 359 360 362 361 358 356 357 356 357 359 358 358 361 361 362 363 362 362 361 360 359 358 357 354 351 353 352 343
359 359 359 358 357 356 356 355 355 355 356 356 357 357 357 355 355 358 360 361 361 359 360 363 363 363 362 363 360 353 349 350 350 349 348 350 351 348
355 356 358 358 355 356 358 359 359 358 357 357 356 355 356 357 354 354 358 360 358 358 362 363 361 362 362 356 350 352 352 353 351 349 350 350 349 349
352 354 358 358 356 352 349 352 355 358 361 360 359 356 352 353 354 357 358 353 357 362 362 360 360 361 355 352 353 349 346 348 350 350 350 350 349 349
354 353 353 350 352 359 361 358 358 356 356 357 358 356 357 357 354 357 361 358 363 362 361 359 358 354 355 354 348 347 347 345 340 343 347 348 349 346
355 355 356 355 353 351 350 351 356 356 358 359 359 357 355 359 361 361 363 362 361 362 361 359 356 356 353 348 346 346 339 337 334 335 333 334 336 339
357 357 355 353 353 351 351 350 350 350 354 355 355 356 358 359 362 364 363 362 360 359 357 353 357 352 347 345 344 340 335 331 330 328 329 330 331 331
357 357 355 353 350 349 349 350 350 351 351 353 357 359 360 363 363 361 361 361 359 355 347 355 346 345 341 342 340 336 330 327 324 323 324 324 322 323
360 358 357 355 354 357 360 359 355 354 356 360 361 361 363 363 360 360 360 360 348 345 344 346 344 340 338 338 336 330 326 325 322 320 320 319 319 319
360 358 358 357 355 356 359 362 362 361 360 360 361 363 363 360 359 359 359 348 345 345 344 345 343 339 338 335 332 328 325 323 321 319 317 315 314 316
356 359 359 359 359 357 358 360 363 364 363 364 363 363 360 359 358 358 347 345 344 344 344 345 343 340 339 333 330 327 325 324 322 321 319 315 314 313
358 358 360 362 362 363 364 365 365 365 364 363 363 361 359 357 356 347 345 344 343 343 346 342 341 341 341 339 332 331 328 324 323 321 319 316 315 314
360 364 365 364 365 365 363 363 365 363 361 360 359 359 355 353 348 346 345 344 343 344 341 339 342 341 338 337 337 333 330 325 323 321 318 317 316 316
362 363 364 365 365 365 364 364 362 360 357 356 355 353 349 347 344 344 343 341 340 340 341 341 340 338 335 335 336 331 328 325 324 324 320 319 317 317
364 363 363 363 362 360 358 356 353 350 347 346 345 344 343 342 341 341 341 341 340 339 339 339 337 337 334 333 334 331 324 322 322 323 322 322 320 317
360 360 354 352 349 348 347 347 347 345 345 344 343 341 340 338 338 339 339 340 341 338 337 336 338 335 336 334 333 330 326 322 319 319 319 320 320 320

GFSNE_925_thetae_063.txt.gz
Theta_e
351 348 343 344 346 347 343 343 344 343 342 346 346 346 343 343 343 343 344 343 343 343 343 344 345 345 345 344 343 342 340 334 331 330 329 329 329 330
351 351 347 339 340 347 351 345 346 346 342 344 343 346 346 345 345 345 343 343 344 345 344 347 348 348 347 347 346 345 344 343 342 337 332 330 329 329
353 353 353 352 347 347 351 353 348 346 347 346 346 347 345 344 341 347 349 349 348 348 348 349 349 350 350 350 350 349 346 344 344 343 342 340 336 330
353 353 355 356 352 354 350 350 351 353 353 350 348 346 351 355 353 351 350 351 352 351 351 352 353 353 352 351 353 356 354 351 349 346 344 342 342 340
354 354 353 352 358 357 355 357 356 355 358 358 356 354 352 348 352 355 353 352 355 357 357 354 347 350 361 360 358 358 359 359 358 358 355 349 343 341
356 358 356 355 354 354 354 355 355 355 354 354 353 355 358 357 356 354 353 352 353 346 344 349 357 361 359 360 361 361 360 360 359 358 355 354 351 344
351 352 358 356 354 356 357 357 358 359 358 359 359 361 362 361 358 355 354 351 351 350 354 357 358 360 361 362 362 361 353 348 349 350 349 349 348 348
357 354 353 355 356 355 355 357 358 360 361 362 361 358 357 354 351 352 353 355 356 353 357 358 357 362 361 361 363 355 349 351 348 349 349 348 349 349
358 358 356 355 355 357 357 356 356 355 354 355 356 355 355 354 354 354 355 356 357 356 360 356 360 361 360 357 350 351 346 346 348 347 346 348 349 349
352 356 358 356 355 355 356 356 356 355 354 355 355 355 356 356 357 355 355 357 359 359 354 359 362 359 353 349 351 345 345 346 341 334 335 340 342 344
354 353 354 355 355 356 356 355 356 359 361 362 362 360 356 354 356 355 357 358 356 354 361 362 359 357 351 351 349 343 344 336 330 331 332 332 332 334
354 354 354 354 354 356 356 355 355 354 351 350 351 352 353 357 359 357 354 354 353 359 361 360 359 354 354 353 346 342 340 330 329 327 326 327 328 331
353 353 353 352 351 351 351 353 357 355 358 358 357 358 359 357 353 353 360 360 362 362 361 360 359 359 354 348 343 341 335 328 327 325 322 323 324 327
354 353 353 353 352 351 351 351 350 351 352 353 356 356 355 352 355 357 361 364 363 362 358 357 359 359 345 342 341 337 332 327 324 321 320 319 320 323
358 356 356 355 355 354 354 354 354 354 353 351 352 352 351 354 358 360 363 361 360 355 345 346 352 345 340 340 337 333 328 326 323 320 319 318 318 320
362 358 357 356 356 354 353 353 351 350 351 351 350 351 358 359 362 363 362 359 360 348 344 344 345 341 339 336 334 329 327 325 322 320 318 316 317 317
363 357 356 357 357 356 356 355 357 357 352 352 355 359 361 362 363 361 359 359 356 345 343 343 344 341 340 336 332 329 328 325 323 321 319 316 315 315
358 356 355 356 356 356 355 355 356 359 360 360 360 360 361 362 362 360 358 348 344 344 343 342 345 340 338 335 333 330 329 326 324 322 319 317 315 315
357 356 357 357 357 357 357 355 355 358 359 362 362 363 363 362 359 356 349 345 343 342 343 341 340 342 335 333 331 331 329 327 324 322 319 317 317 316
356 355 357 358 358 358 359 359 360 362 364 364 363 362 360 359 357 353 347 344 343 343 341 340 339 341 338 334 334 332 331 328 326 323 320 317 317 318
356 358 357 358 359 361 362 363 363 362 362 360 358 358 358 355 351 345 344 342 341 340 340 340 341 339 336 334 334 331 330 327 325 324 323 320 318 316
357 359 360 363 364 364 363 362 362 361 360 358 354 349 346 346 343 342 341 341 341 340 339 338 338 338 335 333 332 332 328 326 324 324 324 323 322 319
359 353 349 343 346 354 355 354 353 350 348 346 344 342 343 343 342 340 339 339 339 340 340 338 336 336 337 335 334 332 328 326 323 321 322 322 323 322

GFSNE_925_thetae_066.txt.gz
Theta_e
347 346 344 343 344 345 351 343 342 340 338 343 343 343 347 345 342 342 343 343 343 343 345 346 346 345 345 347 347 347 346 345 344 341 337 337 333 331
349 349 342 341 341 340 349 351 346 344 340 344 344 344 346 346 345 344 342 345 348 350 350 350 350 349 349 350 350 351 350 351 350 345 343 342 341 334
350 351 350 349 345 348 346 349 353 352 346 346 345 346 347 345 352 352 350 351 352 351 351 353 355 354 351 353 357 358 359 358 358 357 352 348 341 340
352 350 352 353 352 352 352 351 350 350 352 351 350 352 352 352 350 349 355 352 350 354 353 347 347 353 357 359 359 360 359 360 359 355 356 353 349 343
353 354 352 352 353 355 355 356 355 355 357 358 357 355 353 349 356 358 354 353 345 345 347 347 355 357 358 360 361 362 361 354 349 350 350 350 350 349
352 351 354 354 354 352 353 353 353 354 354 355 354 354 354 356 360 359 359 350 346 349 348 351 355 357 360 359 361 360 352 350 348 346 348 349 348 347
352 351 352 356 356 355 356 356 356 356 356 357 357 358 359 361 360 355 353 352 353 351 352 353 356 358 361 359 359 350 346 345 345 346 345 346 347 349
352 349 352 351 352 356 357 355 355 357 357 358 358 358 360 358 353 353 354 354 353 352 354 356 357 358 361 354 351 345 342 343 342 333 330 331 333 337
350 350 353 352 352 352 352 356 356 355 356 356 356 356 355 353 353 354 355 354 354 354 357 358 358 361 356 352 347 345 339 339 330 329 328 329 330 331
352 350 353 354 353 353 353 353 353 353 354 355 355 354 354 354 356 358 356 355 355 356 355 353 360 359 349 350 346 343 339 335 329 328 327 326 327 329
354 353 352 352 350 352 356 355 354 354 351 353 354 357 358 360 358 356 356 355 354 354 355 356 360 357 352 351 347 342 338 333 328 327 325 324 324 329
355 355 354 354 353 352 353 355 356 354 353 352 353 352 351 351 354 355 358 356 353 353 360 360 359 355 355 352 348 341 337 333 328 326 324 323 321 326
354 353 353 354 354 353 353 352 353 353 354 354 355 356 356 356 353 357 356 353 356 355 361 360 359 358 356 351 342 339 335 331 329 326 324 321 321 323
356 353 352 352 352 351 353 353 353 352 353 353 352 352 353 352 353 353 352 357 361 363 360 358 357 357 352 340 339 337 332 329 327 325 323 320 321 323
358 356 354 353 352 352 352 351 351 352 351 349 349 351 351 350 351 351 357 360 362 360 351 345 346 351 342 339 336 332 331 329 327 325 322 318 317 319
360 359 358 357 355 355 354 354 353 354 354 352 351 352 352 351 351 356 360 362 360 357 345 344 345 344 340 337 334 331 330 329 327 324 321 316 317 318
360 356 356 357 356 355 355 355 354 353 352 350 348 349 349 350 356 359 362 360 358 356 343 343 342 340 339 337 334 332 331 329 326 324 322 318 316 316
358 355 354 355 353 354 353 353 353 354 355 354 353 351 351 356 360 361 361 358 357 347 343 342 342 338 336 335 335 332 330 329 327 325 323 321 316 315
357 355 356 356 355 355 355 355 354 354 355 354 354 355 357 359 360 361 358 352 344 343 342 343 343 341 333 333 334 332 331 330 327 325 323 322 317 316
354 358 356 357 356 356 356 356 355 354 355 355 355 358 360 361 361 359 355 349 344 342 341 340 339 339 339 334 333 332 332 330 327 325 322 320 319 318
353 356 357 355 356 356 355 355 356 355 354 357 358 359 362 362 359 356 353 348 343 342 340 339 339 339 338 334 333 331 331 329 327 326 325 321 318 317
350 352 354 355 354 350 347 344 341 343 353 358 360 361 359 358 356 352 346 343 341 341 340 339 338 338 336 335 333 331 330 327 325 324 324 325 324 318
352 353 355 355 346 345 345 341 339 338 336 338 349 350 348 347 345 342 341 340 340 339 339 339 338 336 337 336 335 332 330 327 325 323 323 324 325 324

GFSNE_925_thetae_069.txt.gz
Theta_e
346 347 347 346 345 344 351 344 341 338 336 342 343 343 344 346 345 346 347 346 348 351 352 352 353 354 354 352 351 353 355 357 354 351 343 340 339 337
348 346 345 343 344 342 343 352 347 343 339 343 344 344 345 346 346 350 350 350 354 350 350 349 345 346 350 355 359 358 359 359 358 356 352 348 342 338
351 350 349 347 344 346 348 347 349 352 346 349 348 349 349 351 350 350 347 356 352 352 343 345 347 355 356 358 360 360 360 356 352 349 349 349 350 346
351 351 350 350 350 351 351 351 352 351 351 350 351 352 354 351 350 347 353 355 356 348 346 347 352 355 357 360 360 360 358 353 349 348 346 348 349 348
350 353 353 351 351 353 353 354 353 354 354 355 355 353 352 350 350 354 356 354 346 350 348 349 352 356 359 359 359 358 350 348 344 342 343 343 345 347
351 351 350 351 352 352 351 352 354 354 352 353 354 354 355 354 356 356 354 351 352 354 347 350 354 358 360 358 357 350 344 341 340 332 329 329 329 331
352 352 352 350 350 353 353 354 352 353 354 355 355 355 356 355 355 356 354 352 354 354 351 352 355 358 360 357 352 344 341 337 332 329 328 328 327 329
352 351 350 350 349 349 352 356 356 357 355 355 355 355 355 355 353 354 352 352 352 354 354 354 355 359 360 354 347 343 339 335 332 328 328 327 326 326
351 351 350 349 349 348 350 350 351 353 355 356 356 355 355 354 353 353 352 352 353 354 355 355 355 358 357 350 345 343 339 335 331 328 327 326 326 328
351 351 350 350 350 348 351 352 352 352 351 353 354 354 354 355 356 355 354 354 354 353 355 356 356 358 356 348 346 345 339 334 330 328 326 325 327 328
353 352 351 351 349 350 351 353 352 353 352 351 352 351 351 350 353 357 357 353 352 355 355 352 357 359 353 350 348 346 338 333 329 327 325 323 325 325
354 354 353 350 348 351 352 352 353 351 351 350 350 350 351 352 353 353 353 353 353 353 356 358 359 356 354 352 350 344 337 332 329 327 324 323 323 326
352 352 351 349 347 350 352 353 353 352 352 352 351 351 352 352 351 351 354 355 357 354 354 355 359 357 356 352 346 340 335 331 330 327 325 322 323 323
352 352 351 351 350 349 350 349 351 353 353 353 352 353 354 352 349 349 350 352 354 353 357 360 359 357 354 345 339 338 334 331 330 327 324 320 320 320
354 353 354 354 353 353 352 350 350 351 351 351 351 351 350 350 351 351 351 351 352 358 361 359 355 350 352 341 338 336 332 330 329 326 324 320 318 318
355 355 356 356 356 356 355 354 353 352 351 350 349 350 351 352 350 350 350 350 357 361 358 353 345 350 347 339 337 334 332 331 329 326 323 319 317 318
356 354 354 354 354 355 355 355 354 354 352 352 350 351 351 348 348 348 349 356 359 359 355 346 344 344 340 339 336 333 331 330 329 325 323 319 315 315
354 353 354 354 354 354 354 352 352 354 355 354 352 350 350 350 350 349 352 358 359 360 355 346 341 338 336 336 335 334 332 330 329 326 323 320 317 314
356 354 354 355 354 354 353 354 353 354 354 353 351 351 351 353 353 352 355 359 360 359 353 343 341 337 331 332 335 335 333 331 329 326 324 320 317 316
354 355 355 354 355 355 354 354 354 355 354 354 353 352 351 351 353 353 356 358 357 351 342 341 341 341 338 334 336 333 331 330 330 326 323 320 318 316
351 353 354 356 355 356 356 355 355 355 355 354 354 353 349 346 353 354 355 357 355 344 341 340 342 340 338 337 333 332 331 331 330 327 325 320 319 317
353 351 354 354 355 356 356 355 355 355 355 353 348 339 336 335 333 333 338 350 351 347 343 342 339 338 337 335 333 332 331 330 329 328 325 323 323 318
354 351 349 351 353 354 354 351 348 345 341 339 339 338 336 336 337 335 335 334 346 342 340 339 337 337 336 335 335 333 330 329 327 326 326 324 324 323

GFSNE_925_thetae_072.txt.gz
Theta_e
347 346 347 346 345 344 346 346 340 346 345 342 343 343 344 345 347 350 349 348 355 350 350 343 346 349 355 357 358 358 360 360 358 354 353 353 349 343
349 349 347 346 345 344 342 348 348 343 346 342 345 346 347 349 350 348 347 350 354 355 345 347 347 354 356 357 360 360 360 355 351 349 348 348 348 349
349 348 349 348 348 347 347 348 348 349 348 349 349 350 350 351 349 347 346 354 356 347 348 347 349 353 356 359 358 359 355 350 348 345 341 341 343 347
349 350 350 350 349 349 350 351 350 351 350 350 352 352 350 348 349 348 350 350 349 350 351 347 350 354 357 358 357 355 349 346 341 337 330 329 329 335
349 349 350 351 350 350 351 352 353 353 354 353 353 352 352 352 351 348 348 349 350 352 350 347 353 356 358 358 355 349 343 340 335 331 328 328 327 327
349 349 350 350 350 351 351 352 352 351 352 352 352 353 353 353 352 352 352 351 351 352 350 348 353 356 358 358 353 345 341 337 334 330 328 327 327 326
350 349 349 349 350 350 350 350 353 353 353 353 354 353 353 353 353 353 353 352 353 354 354 349 353 356 358 357 350 345 342 338 333 329 328 327 327 327
350 350 350 350 349 350 349 349 349 353 355 355 355 354 354 353 353 354 352 352 353 354 354 351 354 354 358 356 348 345 342 338 334 329 327 327 327 329
350 350 350 350 349 349 348 348 348 349 350 351 354 354 354 354 354 353 353 352 352 355 353 354 353 354 356 355 347 344 344 339 334 329 327 326 326 326
351 351 351 351 350 349 349 348 349 348 349 350 351 351 351 351 351 353 353 353 353 353 352 355 353 354 356 354 348 346 345 339 333 329 326 325 326 325
345 346 348 349 348 350 351 351 349 348 348 349 350 350 350 350 351 353 352 351 353 353 353 354 354 358 358 355 349 348 346 337 332 329 325 324 326 327
344 345 342 344 346 350 351 351 351 347 348 349 350 350 350 351 350 351 352 351 353 354 353 354 356 358 356 352 351 348 345 335 330 329 326 323 323 325
346 346 347 344 344 348 350 351 348 343 348 349 351 352 352 352 352 352 352 352 352 353 352 354 353 357 356 355 350 346 339 334 330 328 325 322 321 321
348 348 348 348 348 345 347 347 345 347 351 351 351 351 351 350 350 350 351 349 350 351 351 353 353 357 356 351 347 340 337 334 330 328 325 323 322 320
349 349 348 348 349 350 350 350 350 350 350 348 349 349 349 349 350 350 349 350 350 351 350 351 357 359 357 354 346 339 336 333 330 328 326 323 321 319
350 350 351 351 352 352 352 353 353 353 352 349 349 350 350 350 350 350 350 350 350 352 351 357 360 354 352 350 345 338 336 333 331 328 325 323 321 319
350 349 350 351 352 352 353 354 354 354 352 352 351 350 350 350 351 351 350 347 350 354 355 358 356 348 349 346 340 338 336 333 331 328 326 323 319 318
349 349 350 351 353 353 351 352 351 351 351 351 353 352 349 350 351 351 349 348 350 353 354 356 350 341 338 338 339 337 336 333 331 329 326 324 319 318
352 351 352 353 353 352 352 352 354 352 351 350 349 349 349 349 349 347 349 350 352 354 354 355 348 339 338 343 338 338 336 333 330 328 326 323 320 318
353 355 355 354 354 354 353 352 353 354 353 351 351 351 350 349 349 350 351 353 353 353 351 351 348 346 339 342 340 338 336 333 330 328 325 322 321 319
350 353 355 356 356 355 355 354 354 353 353 353 353 353 354 353 351 351 352 353 352 350 348 349 352 346 341 340 337 335 335 332 330 329 327 322 320 319
352 351 352 354 355 355 355 354 354 354 354 354 354 354 353 353 351 352 351 350 348 348 347 346 343 339 338 338 338 336 333 331 330 330 328 326 324 323
354 353 353 352 352 353 354 354 354 355 355 353 351 352 351 347 338 334 333 335 337 335 337 337 340 339 337 336 336 335 332 330 328 327 327 328 326 324

GFSNE_925_thetae_075.txt.gz
Theta_e
353 349 350 352 351 349 350 350 349 349 347 347 346 348 350 351 352 351 352 346 354 354 346 349 348 352 354 357 359 359 359 356 352 349 348 347 347 348
352 354 352 351 351 350 348 349 350 351 350 350 349 351 351 352 352 351 352 352 354 345 349 348 350 352 355 358 358 358 355 350 347 344 339 336 337 340
354 354 354 352 350 350 350 350 351 351 349 346 352 352 351 355 353 351 352 352 351 350 350 347 351 354 356 358 357 353 348 344 338 333 330 328 328 328
353 354 353 352 353 353 353 354 352 354 353 352 352 353 355 355 356 357 354 351 354 350 349 346 351 356 357 358 356 349 343 338 334 332 329 328 327 327
353 353 353 354 355 353 354 354 353 355 355 356 354 354 354 354 354 352 355 356 353 351 352 351 353 356 357 358 355 347 342 339 336 333 329 328 327 327
355 354 353 354 354 356 356 356 355 356 355 356 354 353 354 354 355 352 352 351 353 353 352 352 353 357 357 358 355 347 343 341 338 333 329 328 327 327
355 355 354 352 347 351 352 353 355 355 355 355 354 353 352 351 351 351 351 353 352 355 354 349 352 358 359 355 353 348 344 343 341 334 329 328 326 327
355 356 354 351 349 349 348 349 351 354 354 353 350 350 354 354 351 352 352 353 352 350 355 351 353 358 359 350 355 349 345 345 343 334 329 327 326 328
355 356 355 353 351 354 351 349 349 348 349 350 353 353 353 353 355 356 353 355 354 351 353 353 353 358 359 349 356 350 345 346 344 334 329 327 326 328
353 354 355 354 355 353 355 355 355 354 351 348 348 351 354 355 356 356 356 356 355 353 354 356 353 358 359 352 356 352 347 347 343 334 329 327 326 328
351 351 352 353 352 345 350 354 354 354 351 350 346 349 348 349 350 354 354 353 351 350 351 355 355 359 360 358 347 350 349 347 340 333 329 327 325 327
347 348 348 346 348 345 345 350 352 351 351 349 351 350 348 350 351 351 353 354 352 351 351 355 353 357 358 358 352 344 343 343 337 332 328 326 324 323
350 350 349 348 342 339 340 346 348 347 349 352 350 349 351 354 355 354 351 353 353 352 351 355 354 356 359 358 357 350 343 337 333 329 327 325 323 324
351 351 350 349 347 345 342 340 341 342 349 350 348 348 349 350 351 353 355 355 354 354 353 355 356 355 358 360 358 349 341 337 333 330 327 324 323 323
351 352 352 351 349 347 346 346 346 348 349 350 350 350 349 349 352 354 355 356 354 354 353 354 357 356 357 359 358 350 344 340 333 331 328 325 323 321
347 349 350 350 349 349 348 348 349 349 350 351 351 351 351 351 352 353 354 353 354 355 355 354 354 354 356 356 356 351 346 343 336 333 329 326 323 321
347 349 351 351 352 352 351 352 353 351 351 352 353 353 352 352 352 353 354 354 354 354 354 353 350 354 353 353 350 348 346 341 336 333 330 330 325 321
347 352 353 354 354 353 353 352 353 353 353 352 353 353 353 352 353 353 354 355 355 354 354 355 348 347 344 346 348 348 343 341 336 332 329 329 330 323
351 354 353 353 352 352 353 355 355 353 353 355 352 352 353 353 354 354 355 356 356 355 355 355 352 350 355 357 347 342 343 340 336 332 330 328 328 323
352 352 354 353 354 356 356 356 357 355 354 356 354 353 353 354 354 355 355 356 356 356 356 357 353 349 355 358 352 344 340 340 337 335 330 326 323 324
347 352 355 356 355 355 358 358 357 355 353 354 356 356 355 355 356 357 357 357 357 357 357 355 353 350 353 347 343 339 338 336 335 335 331 329 326 324
355 353 353 356 357 357 356 356 357 358 355 354 355 354 354 355 356 356 355 355 353 353 352 352 350 346 344 344 345 345 338 330 332 331 330 330 328 330
356 356 357 356 356 357 357 355 355 356 355 355 355 356 355 356 355 355 354 353 350 348 347 345 340 339 338 339 341 343 335 331 329 327 328 330 330 327

GFSNE_925_thetae_078.txt.gz
Theta_e
350 350 349 348 349 350 350 349 348 349 347 350 347 349 350 350 353 352 353 351 353 349 350 349 347 349 353 356 358 357 354 349 345 339 333 330 328 329
350 351 353 348 349 350 349 349 349 349 349 346 348 350 354 353 352 354 353 350 350 349 350 348 347 352 356 357 357 353 347 340 335 333 330 329 328 327
353 353 354 353 350 348 348 348 349 349 349 346 347 348 355 356 356 356 353 351 347 349 348 349 349 354 357 358 356 350 343 339 336 334 330 328 328 327
353 354 354 351 354 352 350 350 349 350 351 349 348 349 352 354 355 357 353 350 352 351 347 350 351 353 356 357 356 349 343 341 340 337 331 328 328 327
353 355 353 353 354 350 352 350 350 351 351 351 350 348 350 353 355 353 353 351 348 348 348 348 350 353 357 357 356 350 344 343 344 341 331 328 327 326
356 356 355 353 353 355 355 355 355 354 351 352 350 350 350 351 352 350 347 346 347 349 349 348 347 352 358 358 355 353 347 344 344 342 332 328 326 327
357 358 357 355 352 353 352 353 354 355 352 350 350 350 349 349 351 347 347 347 346 347 350 349 346 350 356 357 353 355 350 345 345 342 332 328 326 327
357 357 357 356 355 351 347 345 348 353 353 349 346 345 348 349 347 347 347 347 348 345 348 346 346 347 355 361 353 354 352 347 347 341 333 328 326 328
356 356 355 352 355 355 354 350 349 349 349 351 354 353 352 352 353 354 353 353 352 349 348 350 349 349 353 358 354 355 352 348 348 341 333 328 326 328
351 353 355 354 351 353 355 354 356 355 353 350 352 353 353 354 355 355 356 356 354 351 348 350 349 348 354 360 359 353 350 348 347 338 333 328 326 329
349 351 352 355 355 354 354 353 352 352 350 352 351 350 351 348 348 352 350 349 347 345 344 345 347 348 351 355 358 356 350 347 342 337 332 328 327 329
349 350 350 351 352 353 354 355 355 353 348 345 348 349 349 350 346 348 352 352 348 346 344 348 346 346 350 353 360 355 350 346 341 335 333 328 327 328
350 350 350 350 349 347 349 353 352 348 346 346 345 346 345 346 351 354 354 353 349 346 344 348 348 348 350 353 356 359 356 348 341 337 334 329 327 326
352 351 352 352 352 350 349 348 348 349 345 340 340 341 342 343 342 345 354 356 354 354 353 355 353 348 350 352 353 358 354 348 344 342 337 331 328 326
353 354 354 354 354 352 351 349 348 347 347 347 345 344 343 343 343 345 351 354 357 359 358 359 357 355 356 355 354 355 359 354 346 342 339 334 331 329
351 348 351 352 353 354 353 351 348 349 349 349 348 345 346 346 346 347 349 349 351 353 355 358 359 359 358 356 356 358 358 355 348 344 340 336 332 329
350 351 352 352 353 354 355 354 353 352 350 351 351 350 350 350 350 350 349 349 349 350 350 352 360 359 357 358 358 359 357 356 352 347 340 339 335 330
351 353 355 355 356 356 357 357 356 355 354 353 352 351 351 351 351 350 349 349 350 351 352 351 354 357 354 355 356 358 356 354 353 345 341 339 336 332
353 355 356 356 358 358 358 357 357 357 357 357 357 355 353 352 351 350 350 350 352 353 353 354 354 357 358 357 351 354 356 354 350 345 341 339 336 334
352 354 355 357 357 356 355 357 357 357 358 358 357 356 356 354 352 352 352 353 353 354 355 356 355 355 358 356 350 352 352 352 350 346 342 337 332 330
348 351 354 355 358 358 358 358 359 359 360 360 359 359 359 356 354 353 353 354 355 356 358 359 357 357 356 356 354 355 350 346 348 345 343 336 332 330
352 353 353 354 357 359 359 358 358 359 360 360 359 358 358 359 359 357 357 357 359 358 358 359 359 357 356 355 355 355 350 340 340 340 339 335 334 333
348 353 355 357 356 357 358 357 358 358 358 359 359 359 358 357 357 356 357 358 358 358 358 357 353 353 352 350 351 350 350 337 336 336 334 333 331 330

GFSNE_925_thetae_081.txt.gz
Theta_e
351 351 351 348 344 345 345 346 348 356 352 351 346 351 351 351 351 354 353 353 348 352 349 345 344 348 355 357 357 352 345 338 335 333 330 328 328 327
348 352 350 347 346 346 346 346 346 347 350 347 347 349 353 355 351 355 355 353 351 349 349 347 346 349 355 357 356 350 342 340 340 336 332 329 328 327
354 354 353 352 351 347 345 345 346 347 348 347 348 347 353 352 356 357 357 354 349 350 351 347 348 350 354 356 356 351 344 341 343 342 334 329 327 326
353 352 352 351 354 352 352 350 349 352 351 353 350 348 348 351 354 356 356 353 352 350 349 347 348 349 354 356 356 354 347 344 343 343 336 329 327 326
355 353 352 352 353 352 352 349 348 352 352 353 351 349 348 349 351 354 354 351 350 347 345 348 348 347 351 358 357 355 352 346 344 345 336 328 327 326
355 355 354 352 353 354 354 354 352 351 350 349 348 349 350 350 351 352 349 346 346 346 347 350 347 346 350 356 357 353 355 349 345 346 336 328 326 327
356 356 356 353 352 353 352 353 353 354 351 349 348 349 349 351 352 351 348 347 346 345 344 347 343 346 348 354 358 352 355 352 347 346 336 328 326 328
356 355 354 357 356 355 351 346 349 356 357 353 350 347 350 348 346 347 348 347 349 348 346 346 345 347 348 351 355 353 354 352 347 344 336 328 326 329
357 357 357 351 354 357 357 353 347 344 345 350 357 356 354 354 354 358 354 356 354 350 349 349 349 348 348 349 357 357 355 351 348 342 337 328 327 330
353 356 357 355 354 356 357 357 358 357 353 350 349 349 352 353 354 355 358 359 357 356 354 353 346 346 346 352 357 359 358 353 350 343 338 329 327 331
351 352 352 356 358 354 352 357 357 356 352 354 352 351 350 350 348 351 349 348 348 344 343 343 344 345 345 347 350 358 359 356 351 346 340 331 327 332
352 352 352 351 352 355 356 356 358 357 357 350 349 353 353 353 351 350 351 350 348 348 344 344 344 345 348 346 353 358 358 357 352 348 340 336 328 331
353 352 353 352 351 349 351 355 357 356 356 353 351 350 348 349 352 353 352 353 350 349 347 345 345 344 345 346 345 349 356 353 350 345 342 338 334 327
354 353 352 351 351 351 350 350 349 349 352 352 350 346 343 342 343 344 348 351 353 353 350 348 356 353 350 348 346 346 361 359 352 349 345 339 336 332
354 354 354 354 354 353 352 352 351 350 350 352 353 352 349 344 341 341 342 348 354 355 357 356 358 358 357 354 351 350 351 358 353 350 348 344 339 335
351 351 352 353 354 354 354 354 353 351 352 353 352 352 350 347 346 345 346 345 347 351 353 352 353 361 360 357 356 355 353 354 358 351 348 346 340 336
341 347 355 355 353 354 355 356 357 355 353 352 352 352 351 351 349 348 349 348 350 351 350 349 355 357 361 360 358 357 356 355 357 354 349 348 345 339
335 347 355 356 357 357 357 358 358 358 358 357 354 353 353 352 352 352 351 352 353 352 351 350 350 358 361 362 359 359 357 357 355 353 352 350 347 341
337 340 350 354 355 357 359 359 359 359 359 358 357 358 356 355 353 352 352 353 354 353 352 351 352 354 361 364 358 356 356 356 356 353 352 349 347 343
338 341 350 354 355 355 358 359 359 359 360 359 360 359 359 359 359 358 356 354 353 353 354 354 354 355 356 361 359 357 353 355 357 356 352 349 343 338
340 345 348 350 354 355 355 357 358 357 358 359 359 359 360 360 360 359 359 354 354 355 356 356 356 357 358 358 359 356 356 353 353 355 354 349 343 337
340 344 348 348 348 353 354 355 356 359 360 359 358 360 359 358 358 359 359 359 358 356 356 356 357 357 358 357 358 357 357 354 352 351 349 349 343 339
337 342 346 349 353 355 354 354 356 357 359 361 361 359 359 360 358 358 358 358 358 357 357 357 359 357 357 357 358 357 356 352 348 345 343 343 341 334

GFSNE_925_thetae_084.txt.gz
Theta_e
350 347 346 344 347 345 346 343 347 358 356 350 346 349 351 352 351 350 355 353 351 353 353 349 345 348 353 356 356 351 342 338 340 341 336 330 327 327
350 351 347 344 347 351 347 346 347 347 356 351 347 350 351 350 349 352 353 351 351 354 349 350 346 348 350 355 356 353 345 341 342 343 340 331 327 326
351 350 352 350 349 349 354 352 346 346 353 351 352 351 349 346 346 353 353 356 354 352 350 350 347 347 346 355 355 355 350 345 344 344 341 331 326 326
353 352 351 353 351 349 349 348 350 348 348 351 351 345 346 351 350 353 351 354 353 351 350 347 347 348 347 350 357 355 353 350 345 345 341 331 326 326
355 354 351 352 352 351 353 353 353 353 351 352 351 354 349 346 347 349 353 351 352 347 346 346 347 349 347 348 356 353 354 352 347 346 339 330 326 327
355 356 356 355 353 352 352 352 352 354 351 351 350 349 349 350 353 355 353 346 346 347 344 346 347 345 344 348 354 354 352 353 349 346 338 330 326 330
353 355 356 356 352 355 354 354 355 353 356 355 354 352 352 353 348 347 348 352 350 344 345 347 348 345 346 348 348 358 353 353 350 347 340 329 326 330
354 353 355 355 356 354 351 351 350 352 354 358 360 355 351 349 353 353 352 352 354 355 353 347 345 347 351 350 350 356 355 353 350 348 342 332 326 331
356 356 357 356 353 351 354 354 353 347 345 346 349 352 356 352 353 355 358 356 358 352 353 355 353 353 350 349 347 355 356 357 353 352 345 334 327 331
352 355 357 356 354 355 358 359 358 356 354 352 349 346 345 343 344 348 351 355 358 359 358 360 355 356 348 347 347 352 356 358 354 354 348 340 328 331
350 351 353 354 357 359 353 352 356 361 361 358 355 353 352 350 349 350 353 353 351 349 347 348 346 344 345 346 346 346 353 358 353 354 352 344 331 332
355 353 350 349 353 352 352 359 358 355 353 356 357 355 353 353 353 353 354 355 354 352 350 348 350 347 348 346 347 345 351 358 356 355 351 344 340 328
357 356 355 355 353 351 350 351 353 355 356 356 356 356 355 353 353 352 350 352 354 353 349 349 347 351 354 354 350 348 349 353 356 356 350 346 342 336
355 356 356 356 353 353 354 352 351 350 352 355 356 356 355 353 351 349 348 348 349 349 347 351 352 353 355 356 355 354 350 350 358 356 350 347 343 339
346 349 354 356 355 354 354 353 352 350 348 351 352 353 353 353 353 351 347 342 344 350 351 351 352 353 357 359 358 357 355 355 359 353 350 349 346 341
333 339 343 347 353 353 353 353 353 353 348 350 351 352 353 354 354 353 351 347 345 354 351 352 354 353 357 359 359 359 357 356 358 357 353 350 346 342
328 330 334 343 354 356 357 356 355 355 353 352 353 355 355 354 354 353 351 349 349 350 349 348 350 355 357 358 361 361 359 358 357 356 355 350 348 346
330 330 332 336 346 346 352 353 354 356 357 356 355 355 355 355 354 354 354 352 351 351 351 349 351 353 355 360 358 361 360 360 357 357 357 351 350 349
330 331 333 335 340 347 347 347 344 353 355 357 357 358 357 355 354 354 353 352 354 355 354 353 353 354 354 357 358 360 359 356 355 358 356 352 352 350
330 334 337 340 342 348 352 349 344 351 352 356 357 358 357 357 357 357 356 355 354 352 352 354 355 352 352 353 354 354 357 358 356 356 356 353 352 349
334 339 340 342 344 348 352 352 354 354 353 340 355 357 358 357 357 358 358 357 356 356 356 354 353 352 354 357 358 356 354 355 355 355 353 353 347 341
331 335 338 341 343 347 347 348 344 349 351 352 352 353 355 357 358 358 358 358 357 356 355 355 356 357 357 357 356 355 354 354 354 353 352 353 352 342
322 326 330 335 342 347 347 347 349 351 351 352 352 352 351 354 356 357 357 357 357 357 356 355 354 353 353 354 355 354 355 355 355 351 349 350 350 349

GFSNE_925_thetae_087.txt.gz
Theta_e
348 344 342 338 339 345 351 346 348 345 345 349 350 352 352 352 350 346 350 351 350 353 353 350 348 346 348 354 354 353 347 342 342 343 342 333 327 326
352 349 350 350 349 344 347 353 353 350 345 347 350 354 351 348 345 346 349 350 352 352 352 350 349 346 347 352 355 354 352 346 344 344 344 336 327 325
349 353 350 352 350 349 344 347 348 351 351 350 349 347 345 343 348 349 349 351 351 351 352 353 350 347 348 349 354 355 353 350 346 345 344 336 327 326
350 352 347 349 350 353 351 349 353 352 355 352 350 348 353 353 350 346 346 350 351 349 346 346 346 347 347 349 350 356 353 352 348 346 344 335 326 328
352 351 353 349 349 352 349 348 351 349 350 354 351 349 351 350 347 351 353 353 346 349 346 342 347 346 347 347 348 354 353 353 349 347 343 336 327 330
355 354 355 353 353 352 352 350 348 350 349 350 350 350 350 350 351 349 351 351 349 348 345 344 349 348 347 345 346 348 355 353 351 348 343 337 327 329
351 353 354 354 357 353 355 354 352 351 352 354 356 357 357 355 351 354 352 348 344 339 341 344 347 347 346 348 350 348 354 354 352 350 344 339 328 328
356 354 353 352 355 358 354 351 354 352 351 354 353 355 355 355 353 350 349 349 352 342 348 347 347 349 351 350 351 349 351 355 353 351 346 342 330 328
353 356 353 354 353 356 354 352 352 353 352 350 348 346 345 343 342 342 343 345 350 346 354 355 346 349 343 347 352 350 350 355 356 353 347 344 333 328
353 354 357 356 355 355 353 354 357 356 356 356 355 353 351 353 351 348 348 348 349 350 354 355 347 344 341 344 347 346 346 352 356 354 351 346 337 329
353 353 351 350 352 353 357 359 359 357 354 354 356 359 359 357 353 353 351 352 352 350 350 350 348 347 345 347 347 346 345 347 353 356 354 348 340 334
356 356 355 354 353 351 349 351 352 352 354 356 356 354 353 356 356 355 354 351 350 351 349 350 348 346 349 345 348 349 346 346 348 356 355 351 342 338
354 354 355 356 356 355 354 352 350 350 351 351 353 356 356 355 355 354 353 352 352 352 349 350 349 349 349 350 351 349 350 350 348 350 354 353 345 341
348 351 352 354 354 353 353 353 353 353 352 350 350 352 354 355 355 354 353 352 352 351 349 350 350 350 350 351 353 351 352 353 352 350 351 354 347 343
330 338 341 344 349 351 352 354 354 353 352 349 347 349 350 351 352 353 353 353 352 351 350 348 350 351 353 353 353 354 355 354 356 355 352 355 351 347
324 326 327 331 338 344 347 350 352 352 352 351 351 351 349 350 351 352 353 353 352 351 351 350 347 350 355 354 355 355 355 357 355 355 355 355 352 348
322 323 324 326 328 330 338 350 355 356 355 354 351 350 350 351 351 352 353 353 352 351 350 349 347 346 352 355 357 356 357 357 358 357 357 356 354 352
319 323 325 327 329 330 333 338 342 347 350 353 354 352 351 352 353 354 354 353 352 350 349 349 348 349 355 356 355 358 358 357 353 352 356 357 354 353
318 320 324 327 330 332 333 337 342 344 346 345 346 346 352 354 354 353 353 352 352 353 353 353 351 350 349 353 354 354 355 353 355 357 356 355 356 356
318 321 326 329 333 336 338 340 344 349 351 349 346 350 347 348 345 343 350 352 352 352 352 352 352 354 353 351 350 350 350 353 358 357 355 353 355 354
322 323 326 333 338 339 340 342 343 346 347 347 347 344 345 341 343 342 339 350 353 354 354 354 354 354 353 352 351 351 352 354 354 354 354 354 351 347
317 318 318 319 323 326 331 338 340 341 343 345 347 347 346 345 337 336 347 351 351 352 353 353 353 354 354 354 353 354 354 354 354 354 354 353 352 341
315 317 319 321 324 327 327 327 327 327 327 329 333 337 342 349 349 349 349 349 349 351 352 352 352 352 352 353 353 353 353 353 353 353 352 352 352 351

GFSNE_925_thetae_090.txt.gz
Theta_e
348 349 347 347 348 348 348 351 349 342 340 348 351 352 350 348 345 345 349 348 350 352 352 353 351 348 346 347 353 354 351 347 344 342 342 341 332 326
349 350 349 350 349 349 346 346 348 349 343 348 352 349 346 345 346 348 348 346 349 351 351 348 348 350 347 347 348 354 353 351 347 344 343 342 332 325
350 348 349 351 350 350 350 349 348 350 349 351 351 350 349 350 349 347 348 350 350 349 345 344 344 346 349 347 348 348 354 352 350 346 344 340 330 326
352 351 348 347 347 347 353 350 349 351 350 351 351 351 348 349 349 349 350 352 349 348 347 346 341 345 346 347 346 347 350 353 352 349 345 339 328 329
352 350 350 352 351 346 348 350 349 348 349 350 350 349 347 346 349 351 349 348 346 345 341 333 347 347 347 344 345 346 347 353 352 351 347 340 328 329
351 352 353 353 353 351 352 351 352 351 350 350 351 351 352 353 355 354 351 344 339 336 334 336 337 345 348 350 350 349 350 348 353 351 349 342 331 329
353 353 353 353 353 353 354 355 354 354 352 351 352 353 351 350 351 352 353 345 340 342 339 339 340 334 336 344 344 349 352 350 352 352 349 345 337 329
355 354 355 354 352 351 352 355 355 353 352 353 352 351 349 347 344 344 344 345 347 344 345 345 344 341 337 337 336 343 351 350 349 353 351 347 343 331
353 353 352 353 354 352 352 352 354 354 353 353 354 351 351 352 351 350 350 347 347 349 349 349 348 346 340 343 338 340 347 348 348 353 352 351 348 336
352 352 353 353 353 354 355 354 355 354 353 354 355 354 354 353 355 356 354 352 351 352 351 352 347 346 341 342 336 345 345 346 348 352 353 352 351 345
353 354 354 354 353 352 351 353 354 354 353 353 353 353 354 355 357 357 357 352 351 352 350 349 346 347 344 344 344 342 346 346 346 349 352 352 352 348
353 353 353 354 355 354 353 352 351 350 350 349 349 349 350 351 352 354 354 353 351 350 349 348 347 347 346 346 346 346 345 346 347 347 347 352 352 349
347 349 350 353 353 354 352 352 353 351 351 351 350 350 350 351 351 351 352 354 352 351 352 351 350 349 348 348 348 347 349 348 349 351 347 346 351 351
327 329 334 339 345 347 349 350 351 352 352 352 353 351 349 350 351 352 352 353 353 353 352 352 351 350 349 348 348 348 348 350 350 351 351 350 347 350
320 321 321 322 325 327 334 337 343 347 348 350 351 351 351 350 350 350 351 352 353 353 352 352 352 351 349 349 349 349 350 350 350 353 353 354 351 350
320 318 318 320 321 322 323 324 327 333 346 350 348 349 349 349 348 349 350 349 350 350 351 352 352 351 350 350 350 350 351 352 351 353 354 354 353 351
320 318 318 318 319 320 322 325 329 331 342 347 351 350 351 349 349 349 349 349 350 350 351 351 352 351 349 349 351 352 352 353 352 353 355 356 355 355
317 317 318 317 318 321 325 329 334 336 337 339 343 346 349 351 352 350 351 351 351 352 351 351 350 349 349 352 352 354 354 354 352 352 354 356 356 353
317 319 318 319 320 323 326 332 336 338 340 343 345 347 347 346 348 351 352 352 351 350 349 349 350 347 345 348 349 350 354 353 352 354 354 355 355 354
313 316 318 321 323 327 330 333 334 336 338 339 344 344 346 347 346 344 346 345 343 342 340 341 345 348 349 349 350 351 351 352 353 354 353 354 355 355
308 311 313 315 315 316 318 325 330 334 335 335 336 337 339 343 344 342 342 341 341 338 340 342 344 347 350 350 350 351 352 351 351 352 351 354 353 349
305 307 310 314 316 316 318 322 323 322 322 322 322 323 326 330 332 336 339 339 339 342 345 346 346 347 349 348 350 350 351 351 351 351 352 353 353 343
300 303 304 306 308 310 313 314 315 315 316 316 313 314 317 318 320 323 331 335 345 345 345 345 346 347 349 349 349 350 350 350 350 350 350 351 350 351

GFSNE_925_thetae_093.txt.gz
Theta_e
348 349 350 347 348 349 347 349 348 343 339 347 351 351 346 346 350 349 346 347 347 348 347 344 344 346 349 347 347 349 353 351 349 346 344 344 337 327
350 350 350 350 350 349 348 346 347 348 343 347 350 348 348 348 348 347 348 349 350 350 345 346 344 343 346 347 347 347 348 353 351 349 345 344 337 326
350 350 350 348 349 349 350 350 348 350 348 350 350 349 349 347 346 347 348 349 349 348 346 342 338 345 346 346 345 346 347 348 353 351 349 345 338 327
349 350 350 349 347 348 348 351 348 349 350 348 347 345 345 345 346 349 350 349 347 339 335 333 342 339 345 345 343 343 346 347 349 352 350 347 339 329
350 350 351 350 351 351 349 348 349 350 349 350 349 348 348 348 350 351 352 350 343 336 337 335 337 339 338 341 348 347 349 350 348 351 351 348 342 331
352 351 350 350 351 351 353 352 353 353 352 350 350 350 349 348 347 347 342 340 340 340 339 340 343 340 335 334 336 337 342 349 352 348 352 349 344 332
352 352 352 352 350 349 350 349 352 353 354 353 351 351 351 350 350 348 347 347 348 345 344 347 345 341 335 335 339 337 339 343 351 349 351 351 347 339
353 353 352 352 353 353 353 352 351 351 353 355 352 351 352 352 351 351 351 349 347 350 349 349 348 343 339 336 342 337 340 345 347 348 350 352 349 346
352 353 353 352 351 351 351 351 353 352 352 354 353 353 353 353 353 352 352 351 351 354 352 351 351 348 343 339 341 339 339 343 345 346 348 352 352 349
352 351 351 351 352 352 352 352 351 351 353 353 354 353 353 353 355 354 355 353 353 354 353 351 349 347 345 344 340 343 342 339 345 346 347 350 352 351
351 352 352 352 353 353 353 353 352 352 351 351 350 350 350 349 349 353 353 352 351 352 351 350 350 348 348 348 345 343 343 345 345 346 346 347 348 352
345 346 347 349 351 352 351 351 351 352 351 350 350 352 351 350 350 350 350 351 351 350 351 349 349 349 348 350 347 348 348 346 346 347 347 349 348 347
323 326 329 327 333 340 344 344 344 345 348 349 350 351 352 352 352 352 351 350 350 350 351 350 350 350 347 349 350 350 350 347 347 345 348 349 349 346
320 319 318 318 319 321 322 323 329 331 335 339 344 346 347 349 350 350 351 351 350 351 351 352 351 352 350 347 347 349 350 350 348 347 348 350 351 351
320 320 320 318 317 317 318 319 322 324 328 335 338 340 347 349 349 349 349 349 348 349 350 351 352 351 350 349 349 349 349 349 349 348 348 350 351 351
317 317 318 317 317 317 317 319 324 328 332 336 340 340 342 346 348 348 348 349 347 348 349 349 350 350 350 350 349 349 349 348 349 348 348 351 352 352
316 316 317 317 318 318 319 322 328 334 336 338 338 340 342 344 345 346 348 348 347 347 348 349 350 351 351 350 349 348 348 348 348 349 350 351 351 352
314 314 315 316 318 320 323 326 328 330 331 333 337 340 343 344 345 346 347 347 347 347 350 351 350 350 348 348 348 348 349 349 350 349 350 352 352 350
306 308 310 312 314 315 316 317 320 321 328 332 336 338 341 345 344 344 344 346 347 346 346 349 350 347 346 345 344 347 349 349 350 351 352 352 352 351
301 303 305 307 309 313 316 319 320 324 324 324 326 329 328 328 333 339 342 341 341 342 342 341 341 342 343 342 344 347 349 350 350 351 351 352 352 352
299 300 302 304 306 308 309 308 309 312 317 319 319 319 319 318 320 322 322 324 331 336 338 339 339 340 340 344 346 346 348 348 348 350 351 352 351 350
296 297 298 298 300 301 303 304 308 312 312 313 314 314 314 314 314 314 315 317 322 327 332 336 339 343 344 345 346 346 347 348 349 350 349 350 350 342
293 293 295 296 297 298 298 298 302 305 308 309 309 309 310 310 310 311 312 313 315 317 319 327 334 342 344 344 345 346 348 348 347 347 347 347 348 348

GFSNE_925_thetae_096.txt.gz
Theta_e
348 348 349 347 348 348 346 347 347 350 349 346 351 347 347 348 347 347 348 350 350 348 345 346 342 335 344 347 347 347 348 348 352 350 347 344 341 329
348 349 349 349 349 349 349 346 346 346 350 345 348 349 347 347 346 346 347 348 347 344 342 338 334 341 342 345 346 346 346 346 347 352 350 347 342 330
349 349 349 349 348 348 349 350 348 349 348 348 348 345 343 342 342 344 347 349 349 345 335 334 333 336 341 342 346 345 345 346 346 348 351 349 345 334
348 349 348 349 348 347 347 349 350 348 349 348 347 347 345 343 347 348 350 350 345 338 338 337 336 341 341 340 338 344 344 349 349 349 350 350 347 338
349 349 349 349 350 350 350 350 348 349 349 349 349 349 350 349 348 346 346 346 347 345 339 341 343 344 343 341 338 338 338 342 347 351 348 352 349 344
350 350 350 350 349 349 349 350 351 351 352 352 351 351 350 350 350 349 350 351 350 349 345 344 343 342 342 340 340 340 338 340 344 349 347 351 351 347
352 352 352 351 352 351 351 350 351 351 351 351 352 351 351 352 351 351 351 351 349 349 348 349 346 345 340 340 340 343 340 339 345 346 347 349 351 350
353 353 353 352 352 352 352 352 352 352 352 352 351 352 352 351 351 351 351 350 351 350 352 351 349 348 346 345 340 340 340 340 344 345 345 347 351 351
352 351 351 351 352 351 351 351 352 352 353 353 352 353 352 353 353 352 352 351 350 351 351 352 351 349 348 347 347 341 343 342 342 345 345 346 350 350
350 350 350 350 350 350 351 352 352 352 351 351 351 351 351 350 350 350 350 350 350 350 351 351 351 350 349 349 349 342 343 344 346 345 345 345 347 348
345 345 345 344 340 345 348 350 351 351 352 352 351 351 351 351 350 349 349 349 351 351 351 350 351 350 349 349 350 347 346 347 348 346 346 346 346 347
326 324 323 322 324 327 331 339 340 343 345 347 348 348 350 351 351 351 351 349 351 351 351 350 351 349 351 350 350 350 351 351 351 350 346 345 347 348
320 320 319 318 318 319 319 321 324 324 328 329 332 337 340 345 347 348 348 349 350 350 351 350 350 350 348 350 350 350 350 350 351 351 350 348 346 348
318 319 319 319 317 317 317 318 321 325 326 328 328 330 334 338 340 345 349 348 348 348 349 349 350 350 350 351 351 351 350 350 350 350 349 348 347 348
316 316 317 317 317 317 317 317 320 329 332 333 335 337 338 340 341 340 341 341 345 348 349 349 348 348 350 350 351 351 350 350 350 349 348 348 347 348
315 316 316 316 316 316 317 318 321 327 330 331 334 336 338 341 342 344 344 346 347 347 346 348 347 347 350 350 350 350 351 351 350 350 349 348 348 348
309 311 313 313 313 314 315 317 319 320 322 326 331 332 333 334 335 341 344 343 345 346 347 348 347 349 349 349 349 350 350 350 349 349 348 349 348 347
303 303 306 308 310 311 313 315 317 318 322 327 327 328 330 331 329 332 336 339 342 344 345 345 345 345 346 347 347 347 348 348 348 348 349 349 351 350
299 301 302 304 305 308 311 313 313 313 314 315 320 321 321 321 321 323 324 325 326 328 334 338 341 342 344 345 342 343 345 345 348 350 350 351 351 352
297 298 299 299 300 301 301 302 303 304 306 308 312 314 316 316 317 318 318 319 319 320 323 328 333 336 339 340 340 341 341 342 346 348 350 352 351 350
295 295 296 296 297 297 298 299 300 300 302 308 311 311 312 312 313 313 313 313 313 316 318 321 324 322 322 332 338 340 342 343 345 346 347 349 351 350
292 292 293 294 295 295 296 296 296 297 299 301 303 305 307 306 307 308 309 310 311 313 314 314 316 318 321 324 330 336 340 343 344 344 345 347 348 345
291 291 291 291 292 293 294 294 295 295 295 296 297 298 305 306 305 305 305 305 306 308 310 311 313 314 316 320 323 329 335 341 344 344 345 345 346 345

GFSNE_925_thetae_099.txt.gz
Theta_e
349 347 351 351 351 352 352 350 351 351 349 350 350 352 352 351 350 348 351 348 346 342 337 336 335 335 337 345 347 346 346 347 349 350 349 348 345 335
351 352 353 352 351 353 352 352 351 350 350 349 349 352 350 347 346 343 350 348 351 350 341 337 336 337 339 340 346 345 344 345 347 348 350 350 347 339
348 351 354 351 352 351 351 353 352 352 350 347 351 349 348 351 348 347 349 352 349 347 340 338 337 340 342 341 340 344 347 347 347 347 348 350 349 344
348 347 348 352 354 352 351 352 352 353 351 352 352 352 353 354 352 353 351 351 352 348 346 341 339 344 344 342 339 339 340 340 345 349 348 350 350 347
347 348 350 348 348 352 350 348 352 353 354 354 354 354 354 354 353 354 355 354 351 347 345 344 344 342 342 343 342 340 341 340 342 344 349 349 351 348
347 348 348 349 349 349 351 350 351 349 352 350 352 352 353 354 355 354 353 350 350 349 347 348 350 349 346 345 344 341 343 342 340 344 349 347 351 350
351 351 352 350 350 350 350 348 350 350 351 350 351 352 352 351 353 353 352 350 350 351 351 350 348 351 351 351 350 345 344 342 339 344 347 346 350 350
356 352 355 351 352 351 351 351 351 351 354 350 351 353 356 356 353 353 353 352 352 349 353 351 351 352 353 351 349 348 343 343 343 342 346 346 348 350
353 352 352 352 351 351 353 351 351 351 351 351 354 355 355 355 355 355 354 354 354 352 352 352 352 353 353 352 351 349 343 345 346 346 344 345 345 349
349 348 348 345 343 344 346 351 353 353 354 354 354 354 355 355 355 355 355 353 353 353 354 355 352 353 353 353 353 350 347 345 345 350 347 346 345 346
337 336 334 332 331 340 341 337 342 347 347 347 347 347 348 349 349 350 352 353 354 352 353 355 353 353 354 353 353 351 348 351 351 350 350 349 345 345
324 320 319 318 318 319 320 326 330 331 329 329 331 336 339 344 346 348 350 353 353 353 353 355 353 353 354 351 353 353 354 353 352 351 351 350 349 348
321 323 320 318 318 317 317 323 322 321 326 330 331 333 334 336 339 343 348 352 352 352 352 353 353 353 353 353 352 352 353 354 354 354 353 351 349 348
316 316 317 317 317 317 319 318 318 326 331 333 333 335 337 339 340 342 343 344 348 351 351 351 353 352 353 354 354 353 353 354 354 354 354 352 349 348
315 315 315 316 316 319 316 316 322 325 327 330 332 334 335 337 337 338 342 344 346 348 349 351 350 351 352 352 351 351 351 352 353 354 354 354 352 351
309 313 312 314 316 317 318 319 320 322 323 325 327 329 331 334 337 337 337 337 344 344 344 347 350 350 351 350 350 351 351 351 350 352 353 354 354 352
305 308 309 310 312 312 314 316 317 318 320 321 322 324 325 327 327 328 330 330 331 334 339 344 344 345 347 348 349 349 349 349 349 349 351 351 352 354
305 306 305 306 307 308 309 310 310 309 310 310 313 316 319 320 322 321 323 326 327 328 327 329 328 334 338 340 343 345 345 345 345 346 348 350 352 353
302 302 302 302 302 302 303 303 304 304 305 307 309 311 313 314 315 316 317 318 319 320 322 323 325 331 337 339 335 335 336 336 339 343 345 347 350 351
300 300 300 300 300 301 301 301 301 301 301 302 303 305 308 309 310 311 311 312 313 314 314 316 320 323 325 327 325 325 328 333 339 343 346 346 347 346
297 297 297 298 298 299 299 299 299 299 299 300 301 302 304 306 307 308 308 308 307 308 310 311 313 314 315 317 320 322 323 325 327 332 335 342 346 346
296 296 295 295 295 295 296 296 297 297 298 298 298 298 299 301 302 303 305 306 306 306 306 306 306 307 310 314 316 317 318 321 322 324 329 336 343 346
295 294 294 294 294 293 293 294 294 295 295 295 295 296 297 298 298 297 298 301 303 304 304 303 304 306 306 306 308 311 315 317 319 322 325 326 332 345

GFSNE_925_thetae_102.txt.gz
Theta_e
351 351 350 348 349 349 349 348 349 350 348 351 348 349 349 347 347 348 348 349 346 349 351 341 339 338 339 339 345 346 346 346 346 348 349 349 347 342
350 352 352 348 350 348 348 347 348 347 349 344 346 349 351 350 347 348 348 347 348 350 345 344 340 338 343 342 340 341 347 346 345 346 347 349 349 345
352 353 353 355 349 347 346 347 347 347 347 343 344 344 352 353 352 353 348 346 345 347 345 343 341 341 344 343 341 338 338 340 344 347 347 348 350 348
350 351 352 350 354 352 350 350 348 350 349 348 348 348 349 351 352 355 352 347 348 347 343 344 343 343 343 342 342 342 341 340 340 342 347 348 349 350
350 351 351 351 352 350 353 351 348 350 351 351 349 347 348 350 350 349 350 350 346 344 344 343 346 346 348 348 348 346 341 342 342 340 343 349 348 350
352 351 351 351 352 352 351 352 351 351 349 350 349 347 347 348 349 348 346 346 346 346 346 347 347 347 349 351 351 349 342 341 342 341 342 347 346 350
354 352 352 353 351 350 350 352 352 351 350 349 348 347 347 353 350 348 347 346 347 346 346 349 347 347 348 350 351 349 349 343 340 339 343 345 346 349
353 354 352 353 354 354 353 352 351 352 353 353 351 349 351 351 349 349 351 351 352 348 352 351 349 349 350 349 351 350 349 343 344 344 344 345 346 346
354 355 354 349 350 349 350 350 352 353 353 354 354 354 355 354 354 356 354 355 355 354 353 352 351 350 349 350 352 352 350 344 345 344 347 345 345 345
347 349 348 346 344 344 345 349 352 353 353 354 355 354 354 353 352 352 353 354 355 354 352 352 351 351 350 350 353 354 351 346 347 349 350 350 349 345
336 334 335 330 325 333 337 339 341 343 342 337 334 335 339 341 342 346 350 352 354 354 353 354 355 355 353 350 351 354 354 353 354 353 353 351 350 349
333 329 320 318 317 317 328 331 332 330 328 331 335 338 338 340 339 345 351 351 352 354 353 353 353 354 355 353 352 352 353 353 354 354 355 354 354 351
327 325 322 317 317 317 320 324 322 317 331 334 335 336 338 340 342 344 345 345 345 346 347 350 352 353 354 354 353 353 353 354 354 355 355 355 355 354
318 317 317 316 316 317 319 316 317 323 327 328 331 333 335 335 336 338 340 342 345 346 347 350 352 353 353 353 353 353 352 352 352 352 353 356 355 355
316 315 315 315 317 320 318 318 322 323 323 324 326 329 330 331 333 336 335 335 337 341 344 346 348 347 349 353 352 351 352 352 353 352 352 352 355 355
310 315 313 314 316 316 317 319 320 320 322 324 323 322 323 325 326 326 326 326 328 330 333 338 336 338 341 346 347 348 349 350 350 351 349 350 351 352
309 310 310 311 311 312 314 313 314 311 312 312 313 314 316 318 319 320 319 320 322 323 324 326 329 330 332 336 340 341 342 346 347 346 347 347 346 348
308 309 307 307 307 308 306 307 308 308 308 308 309 310 313 315 316 315 317 318 319 318 318 318 318 319 321 324 327 335 336 336 337 337 336 338 342 345
307 307 307 306 306 306 306 306 305 305 304 304 306 307 308 309 310 311 312 312 313 313 313 312 313 316 320 323 322 324 326 326 325 327 332 337 339 343
305 305 305 304 304 305 304 304 304 304 304 304 305 305 305 305 306 307 308 309 310 310 310 310 311 312 314 314 314 315 314 317 320 325 327 328 328 330
303 302 302 302 302 302 302 302 302 302 301 303 303 303 303 303 304 304 305 305 305 307 308 309 309 308 308 310 311 312 313 314 315 317 319 322 324 326
301 301 301 300 300 300 299 299 300 300 300 300 300 300 300 300 301 301 302 302 302 303 303 303 304 305 306 307 307 309 309 310 309 309 310 313 317 325
300 300 299 299 299 298 298 298 297 297 298 297 297 297 297 297 297 298 298 299 299 300 300 301 302 303 305 306 306 306 306 307 308 310 311 311 312 314

GFSNE_925_thetae_105.txt.gz
Theta_e
350 352 351 348 345 346 346 346 347 348 347 354 348 349 350 350 349 350 349 348 343 347 348 344 342 340 338 341 340 340 343 346 346 346 347 348 348 347
348 349 354 348 350 347 346 345 345 346 348 344 344 345 352 351 348 350 351 349 346 346 346 343 340 339 341 342 342 340 339 338 341 345 346 347 347 349
352 352 351 352 351 349 349 347 345 345 346 346 346 344 346 351 351 352 350 350 346 346 345 342 342 341 341 342 342 342 341 341 340 340 341 346 347 348
352 352 352 349 353 353 351 350 347 348 347 350 347 350 346 350 350 352 349 348 347 349 343 343 343 345 346 347 348 347 347 343 340 341 340 342 347 347
350 351 352 352 352 353 354 352 349 352 351 350 347 346 347 347 350 348 349 350 346 344 344 345 346 346 347 347 350 350 347 342 341 342 340 340 345 347
352 352 351 352 353 354 353 354 353 352 349 350 349 348 347 352 351 347 346 344 347 347 346 346 347 347 347 347 350 351 349 348 346 342 338 339 343 346
352 353 351 352 352 351 350 352 355 353 351 351 349 347 348 353 348 348 348 347 349 348 348 348 348 348 347 347 351 351 350 350 345 342 341 342 343 346
355 352 351 353 354 353 353 350 351 355 355 354 352 350 353 352 352 353 355 353 354 352 355 353 351 348 348 349 351 352 351 351 345 346 347 346 344 345
355 355 355 350 351 352 352 351 351 351 351 352 355 354 354 355 356 356 354 355 355 355 355 355 354 354 353 350 350 350 352 350 346 344 347 349 349 348
354 353 351 348 343 342 342 349 350 351 352 353 354 351 348 347 345 347 349 351 353 354 355 354 354 354 355 355 354 352 353 352 352 353 353 353 352 351
342 340 339 330 322 324 339 341 342 343 337 333 333 335 338 339 339 341 347 349 353 352 353 351 353 354 354 354 353 353 352 353 352 354 354 354 354 354
332 326 321 319 318 318 332 331 331 328 329 335 340 340 340 342 342 340 347 347 348 348 349 348 348 349 351 352 353 353 353 354 353 353 354 353 354 354
335 331 324 317 317 317 318 325 317 316 325 333 333 337 338 339 337 338 340 342 341 342 345 348 350 350 349 350 350 351 352 352 353 354 353 353 353 354
323 320 317 316 315 317 320 315 316 324 327 325 326 330 333 331 330 332 338 334 333 338 336 345 346 348 348 348 348 348 350 350 350 351 353 353 353 352
316 315 315 315 317 320 319 319 322 323 324 326 327 326 322 325 327 326 325 324 324 325 328 331 336 335 338 339 341 342 342 344 347 350 351 352 351 351
312 316 313 314 316 316 319 319 320 316 317 316 316 317 317 318 319 319 320 319 320 322 323 322 322 320 325 326 328 331 335 337 337 340 346 346 344 345
311 313 312 312 312 312 310 311 312 312 312 311 312 312 313 315 316 316 315 316 317 318 317 316 316 315 315 317 322 325 330 333 335 333 331 332 333 335
312 312 311 310 311 309 309 308 309 308 307 307 308 309 310 311 311 312 313 314 315 315 315 315 314 314 315 316 318 319 319 321 321 320 319 321 325 329
311 310 310 310 310 310 309 309 308 308 307 308 308 308 308 307 307 308 308 309 310 310 310 310 312 313 314 316 314 312 311 312 313 315 318 322 326 329
308 308 308 308 307 308 307 307 307 306 305 306 306 306 306 306 306 306 307 307 306 306 306 307 307 308 307 309 310 311 312 313 314 314 314 314 314 314
307 306 306 306 306 305 305 305 305 304 303 304 304 304 303 303 303 303 303 303 303 304 304 305 305 304 304 307 309 310 310 309 309 309 309 309 310 312
306 305 305 304 304 304 303 303 303 302 302 302 302 301 300 300 300 300 300 301 301 301 302 302 302 303 304 304 306 306 306 306 307 309 309 309 309 312
304 304 304 303 303 302 302 301 301 301 300 300 299 298 297 297 297 298 298 298 299 299 299 299 300 300 301 302 302 303 304 304 307 308 307 307 308 307

GFSNE_925_thetae_108.txt.gz
Theta_e
350 349 348 351 350 352 344 345 349 356 352 348 350 345 348 346 348 348 347 346 347 348 346 345 341 339 335 337 338 341 342 341 341 345 346 346 347 347
352 352 354 351 350 352 352 350 347 346 355 349 346 347 345 347 350 348 348 348 348 350 345 345 342 341 343 343 343 344 341 341 342 342 342 345 346 347
352 352 351 349 351 349 348 349 347 348 351 349 346 348 350 346 351 349 349 350 348 348 347 342 342 343 345 346 347 348 347 344 341 341 341 341 343 346
352 352 352 352 352 353 353 353 351 351 352 350 352 348 345 348 352 349 350 349 348 348 344 345 343 346 346 347 347 349 348 347 345 341 342 341 341 343
351 351 352 353 352 351 352 353 352 352 352 353 352 349 348 350 350 351 343 349 350 347 349 347 346 347 346 347 347 348 350 348 348 344 340 339 340 342
352 351 350 351 352 352 353 352 353 351 351 352 352 351 351 354 350 354 353 355 351 352 350 355 350 350 347 346 348 348 350 350 349 343 340 338 340 342
354 354 352 352 350 350 351 349 350 355 355 354 354 352 354 355 356 356 357 355 354 351 354 353 354 356 355 352 350 351 351 351 348 344 340 343 344 344
349 350 353 352 354 352 352 350 350 350 352 354 355 355 355 355 354 354 354 356 355 353 354 353 352 352 355 353 351 351 351 351 351 351 348 348 351 350
354 353 352 352 351 352 351 350 352 353 352 351 352 353 353 352 350 347 347 349 352 352 354 353 352 356 354 355 354 352 352 352 352 352 353 353 353 352
353 354 351 345 338 340 344 346 346 347 344 340 337 339 339 337 337 340 343 347 351 350 349 352 350 349 346 349 354 353 352 352 352 352 352 353 353 353
345 341 338 329 321 328 337 336 336 335 330 330 334 339 339 339 338 338 345 347 349 345 346 347 347 349 350 350 351 349 353 353 352 353 353 352 351 351
325 325 320 319 318 319 322 324 319 316 318 330 332 335 342 340 338 340 344 344 343 342 340 343 348 348 349 349 346 347 350 348 350 350 350 353 353 352
336 326 321 317 316 316 318 316 314 321 325 327 327 333 333 329 330 329 335 329 333 333 333 339 340 340 341 343 344 343 343 343 342 345 351 350 351 352
325 322 317 316 316 320 317 319 322 324 325 326 322 321 321 323 325 325 323 322 322 322 334 324 331 323 329 335 333 331 328 327 333 340 342 345 343 344
317 315 314 315 318 319 318 319 319 319 317 317 318 317 317 318 319 319 319 318 319 322 318 316 317 315 316 320 321 320 322 327 335 336 331 329 333 337
312 314 313 315 316 315 315 314 313 313 312 312 313 313 313 314 314 313 315 315 316 316 317 317 315 313 314 315 317 321 323 321 321 319 317 319 322 322
310 314 313 313 312 311 310 309 308 307 307 307 309 309 309 309 309 310 311 311 313 313 312 311 310 312 314 315 316 317 314 312 312 312 313 315 316 318
312 314 312 312 311 311 310 311 310 309 308 309 309 309 309 309 308 309 309 309 308 308 307 307 308 308 310 309 314 308 309 309 310 312 314 317 315 314
311 312 312 311 311 310 310 309 309 307 308 308 308 307 306 306 306 306 306 305 305 304 305 307 307 308 306 306 305 306 307 309 311 311 310 310 310 310
310 310 309 309 309 308 308 307 307 305 306 306 305 305 304 304 304 304 303 303 303 303 304 304 304 303 303 305 306 306 306 306 305 306 307 306 306 308
308 308 307 307 307 307 306 306 305 304 304 304 303 302 301 301 301 301 301 301 301 302 302 302 301 301 301 302 303 303 303 303 303 302 302 305 306 305
307 307 306 306 306 305 304 304 303 303 303 302 301 300 299 299 299 299 299 299 299 299 300 300 299 299 299 300 301 301 300 300 301 301 301 302 303 304
306 306 305 305 304 304 303 302 302 301 301 300 298 298 297 297 297 297 297 297 297 297 297 297 297 297 297 298 298 298 298 299 299 299 300 300 300 302

GFSNE_925_thetae_111.txt.gz
Theta_e
347 352 350 353 350 349 351 351 350 344 343 344 348 348 348 348 349 350 346 348 349 348 345 344 342 341 342 343 342 345 344 343 342 341 341 344 345 346
352 351 352 349 348 349 348 353 351 349 346 351 349 350 350 350 349 349 349 348 349 349 347 345 342 343 344 344 345 348 347 345 343 342 341 341 343 345
351 348 350 351 351 352 352 352 351 353 351 349 349 348 348 348 351 351 351 350 350 349 347 348 345 344 346 345 345 346 348 347 344 341 341 341 341 343
351 351 351 349 352 350 351 351 350 352 350 350 350 350 351 350 347 349 354 353 351 350 352 353 349 349 349 354 352 347 347 349 348 347 343 340 340 341
351 351 351 351 352 350 349 352 350 351 349 352 353 351 351 351 350 350 349 350 348 346 347 352 352 352 353 352 350 350 346 350 349 344 340 337 338 340
353 353 351 350 350 351 350 352 350 350 353 351 351 352 352 354 352 352 351 350 350 347 349 351 350 353 354 351 349 349 350 350 348 343 341 342 343 343
349 350 352 352 351 350 350 349 348 348 348 349 351 352 353 352 353 352 349 348 344 351 351 352 352 355 354 355 353 351 351 351 348 348 345 347 351 350
351 351 350 351 350 352 351 351 350 352 352 350 351 352 352 352 348 339 340 345 349 350 350 350 349 349 345 352 353 352 351 351 351 351 349 347 347 351
351 351 351 350 349 348 346 348 347 347 347 348 346 339 337 335 336 338 344 348 349 347 347 348 346 347 345 352 350 351 351 351 352 352 352 351 349 349
348 350 348 344 340 341 343 344 340 339 331 330 332 334 337 338 337 336 342 343 343 344 337 344 347 343 344 349 343 347 349 347 347 349 351 352 352 352
343 341 337 328 325 336 336 334 334 325 322 329 331 334 337 340 340 341 339 340 339 341 330 337 341 336 342 347 335 340 338 340 339 340 348 351 349 352
328 322 320 319 318 318 319 316 315 319 326 328 335 330 329 329 329 334 328 327 324 330 329 336 336 337 335 338 333 330 322 320 329 337 340 346 347 347
327 320 317 316 317 318 317 318 321 324 324 324 322 321 320 322 321 320 320 320 324 322 317 330 316 317 324 323 321 319 316 325 332 334 334 331 329 325
323 318 316 316 318 319 318 320 322 322 320 318 316 315 316 317 317 316 317 317 319 319 315 315 313 313 314 317 317 316 320 323 318 313 314 316 318 317
316 315 314 316 319 317 317 318 320 318 316 315 313 313 313 313 314 315 314 315 316 314 312 310 309 311 313 314 315 317 312 313 309 307 308 310 312 316
313 313 314 315 315 315 315 315 313 312 311 310 310 309 309 309 309 309 309 309 310 309 306 306 307 308 310 311 314 307 307 307 308 310 311 311 313 312
310 312 312 312 311 310 309 308 307 307 308 309 309 309 308 308 307 307 307 306 305 304 305 305 305 306 304 306 306 305 305 305 308 307 305 305 306 307
313 312 311 312 310 310 310 309 307 308 309 308 307 306 306 306 305 305 304 303 302 303 304 304 303 301 301 302 303 305 303 305 304 303 303 304 303 302
312 314 311 311 309 310 309 307 306 307 306 305 305 304 303 303 303 302 301 301 301 302 301 302 301 300 301 301 301 303 302 302 301 301 300 301 301 302
312 310 309 309 308 307 307 306 305 305 304 304 303 302 301 301 300 300 300 299 299 300 300 300 299 299 299 299 299 300 300 300 299 299 299 299 299 300
308 308 308 307 307 306 306 305 304 303 303 302 301 300 299 299 298 298 298 298 297 297 297 298 297 296 296 297 297 297 297 297 297 298 298 298 299 299
307 307 306 306 306 305 304 303 303 302 301 300 299 298 297 297 297 297 297 296 296 295 296 296 296 296 296 296 296 297 296 297 297 297 298 298 298 299
306 306 305 305 305 304 303 302 301 300 300 299 297 296 296 296 296 295 295 295 295 295 295 295 295 295 295 296 296 296 296 297 297 297 297 297 298 298

GFSNE_925_thetae_114.txt.gz
Theta_e
351 351 351 349 348 350 348 347 343 341 341 347 345 347 349 347 348 351 350 351 350 350 348 346 344 342 342 341 342 344 346 345 344 342 341 343 345 345
350 350 350 348 350 350 346 348 350 346 345 349 349 349 350 350 350 352 352 352 351 351 351 346 345 346 345 344 343 344 347 347 342 341 341 340 341 343
350 349 348 350 351 352 351 350 351 350 347 348 349 351 349 346 346 352 352 350 350 348 352 352 351 350 353 353 352 350 344 348 347 345 342 340 340 341
349 350 351 350 352 349 350 350 350 349 348 348 350 350 350 350 349 347 347 345 346 348 350 349 349 351 352 349 348 349 346 347 348 346 341 338 339 340
350 351 351 350 349 350 349 350 349 349 351 351 350 349 352 351 348 348 348 345 344 350 351 352 355 353 353 350 349 348 348 348 349 343 340 339 339 340
349 351 351 351 351 349 350 349 350 348 348 347 348 350 351 349 351 347 342 342 349 348 349 351 348 348 352 352 350 350 350 349 348 345 343 343 346 346
349 350 350 350 349 350 349 349 348 347 347 348 349 350 351 351 344 338 343 346 349 346 347 347 346 347 351 351 351 350 349 350 351 350 346 345 345 348
349 348 348 350 349 349 350 349 349 351 351 350 350 349 344 335 336 340 345 346 346 341 344 346 341 348 346 344 350 348 346 347 348 350 350 351 348 346
348 347 349 347 347 347 346 347 345 346 344 341 337 335 334 336 336 337 343 343 345 332 334 345 337 344 340 338 338 340 336 332 339 347 350 350 350 349
349 347 346 343 342 343 342 341 336 329 327 327 330 332 333 337 339 340 341 340 341 333 330 339 336 334 346 331 327 320 324 333 337 345 348 346 346 344
342 340 336 331 335 335 336 333 321 325 336 335 332 332 334 337 330 331 330 330 329 331 323 334 321 325 335 326 319 315 326 332 328 326 325 327 330 333
328 323 321 319 319 319 318 316 322 329 329 327 327 328 329 325 322 322 322 323 325 320 317 321 316 316 324 327 314 315 319 322 321 315 311 310 313 317
321 318 316 317 318 317 317 320 324 322 321 322 320 320 319 318 317 320 319 319 316 310 312 325 312 313 313 314 313 314 311 311 309 309 308 309 313 315
321 317 316 317 319 318 319 321 320 320 319 319 317 315 314 314 314 317 317 314 310 307 307 308 308 312 313 313 314 309 308 307 306 306 305 305 304 304
318 315 315 318 318 317 317 318 318 317 316 315 311 309 309 309 310 311 312 309 306 305 305 306 306 305 306 310 308 305 303 304 304 303 302 302 303 302
314 313 314 315 315 314 314 313 312 310 310 309 308 308 308 307 307 307 306 306 303 303 303 303 302 302 304 307 304 303 301 304 303 301 300 300 300 301
313 313 312 312 311 310 308 307 308 308 308 308 307 306 306 305 304 303 302 302 302 302 301 300 299 300 303 301 303 301 300 302 301 299 298 299 299 300
312 312 311 310 309 309 308 307 308 308 307 306 305 304 304 303 302 301 300 300 300 300 300 299 298 298 299 299 301 299 300 299 298 297 298 298 298 299
313 311 312 311 311 310 307 307 306 305 305 304 303 302 301 300 300 299 299 299 298 298 298 297 297 296 296 297 297 298 297 297 297 297 297 297 297 298
312 311 309 308 308 307 306 305 305 304 303 302 301 300 299 299 298 298 297 297 296 297 296 296 296 296 296 296 296 297 296 296 296 296 297 297 298 298
310 309 308 307 307 306 305 304 304 303 302 301 299 298 298 297 297 297 296 296 295 296 295 295 295 296 296 296 296 296 297 296 296 297 297 297 297 298
308 307 307 306 306 305 304 303 302 302 301 299 297 297 296 296 296 295 295 295 295 295 295 295 295 295 295 295 296 296 296 296 297 297 297 297 298 298
306 306 306 306 305 304 302 302 301 300 300 298 296 296 296 295 295 295 295 295 295 296 296 296 296 296 296 296 296 296 297 297 297 297 298 298 298 298

GFSNE_925_thetae_117.txt.gz
Theta_e
350 349 349 348 347 348 347 346 345 341 338 346 346 348 349 349 351 351 351 350 349 352 347 346 345 344 344 344 343 342 344 346 344 343 342 343 345 345
351 350 350 347 349 349 347 348 349 347 340 346 349 350 349 347 350 351 350 350 348 348 349 350 350 350 350 352 352 350 343 346 346 343 341 341 341 343
351 350 349 350 350 351 351 350 351 349 344 347 348 349 349 349 348 347 345 345 344 345 345 345 349 350 350 348 348 348 348 344 348 346 343 341 340 340
349 349 349 350 350 350 349 350 349 349 348 347 348 349 348 349 348 347 345 343 346 349 351 351 350 352 351 346 348 349 345 346 348 343 340 338 339 339
349 348 349 350 350 350 349 349 348 348 350 349 347 348 349 348 348 345 342 349 347 349 350 345 349 350 350 348 345 345 346 348 347 342 342 343 342 341
348 349 350 351 350 349 349 349 349 348 347 346 345 348 349 350 342 340 344 348 346 346 345 344 345 348 348 348 347 348 349 349 350 345 343 344 349 349
349 349 347 349 349 348 349 349 348 346 346 347 348 349 349 340 338 343 346 347 346 337 344 345 342 337 340 340 334 337 342 345 349 349 349 346 344 344
349 348 348 346 347 347 349 349 347 348 349 349 349 346 339 335 337 338 342 344 340 332 343 335 339 333 320 323 329 334 339 344 346 347 346 346 345 344
347 347 347 346 346 347 347 347 346 347 345 344 340 335 334 337 337 337 341 342 329 329 333 336 333 332 318 321 328 331 325 326 332 330 330 324 326 335
348 347 345 345 344 344 344 341 339 334 332 330 329 330 332 334 337 339 340 338 343 329 330 335 322 334 321 316 322 327 322 318 316 319 319 320 323 330
342 340 337 337 339 339 339 337 328 330 333 334 335 337 337 337 336 333 328 327 329 320 326 322 316 319 324 313 313 313 311 309 308 308 310 312 316 322
340 336 326 326 330 325 326 322 329 326 328 330 329 328 325 324 324 325 323 323 324 316 316 316 314 314 319 315 313 308 308 306 305 304 303 303 304 305
332 321 318 318 318 318 317 320 326 322 322 323 321 318 318 320 320 319 319 318 315 309 309 318 310 311 312 313 313 304 305 304 302 301 301 301 301 301
318 316 317 318 318 318 321 322 322 320 319 318 317 314 314 316 315 313 311 310 308 307 306 307 307 307 310 312 308 303 302 303 300 299 299 300 300 300
317 316 318 318 318 318 319 319 318 318 317 315 312 311 310 310 312 310 306 305 304 304 302 301 302 307 305 304 304 300 301 303 299 298 299 299 299 299
315 314 316 316 315 315 314 313 313 312 312 311 309 308 307 306 306 305 305 303 302 301 300 300 301 303 303 302 299 299 299 299 298 298 298 299 299 299
313 313 313 312 311 309 309 308 308 309 308 307 306 305 304 303 302 301 301 301 300 299 298 298 300 301 300 301 298 297 297 297 297 297 297 298 298 298
312 312 312 311 309 308 308 308 308 306 306 305 304 303 302 301 300 300 299 299 298 297 296 297 298 298 298 298 298 297 297 296 297 297 297 297 297 298
310 312 311 309 308 307 307 307 306 305 304 303 302 301 300 299 298 298 297 297 297 296 296 296 296 296 295 295 297 296 296 296 296 297 297 297 297 298
310 311 311 310 309 307 306 306 304 303 303 302 300 299 299 298 297 297 296 296 296 296 296 296 296 296 296 295 295 296 296 296 296 297 297 297 298 298
309 311 310 310 308 306 305 305 304 302 301 300 298 298 297 297 296 296 295 295 296 296 296 296 295 295 296 296 296 296 297 297 297 297 297 297 298 298
309 308 307 307 307 306 305 304 302 302 300 299 297 296 296 296 295 295 295 295 296 296 296 296 296 296 296 296 296 296 297 298 298 298 298 298 298 299
308 308 307 306 305 305 304 303 302 301 299 297 296 296 295 295 295 295 295 296 296 296 296 296 296 296 296 296 296 296 297 298 298 298 298 299 299 299

GFSNE_925_thetae_120.txt.gz
Theta_e
348 348 348 346 346 347 347 345 345 350 346 344 347 349 347 349 350 350 349 346 347 348 348 349 348 346 345 349 350 349 344 343 346 344 343 342 342 344
350 350 350 349 347 347 347 347 346 345 348 345 348 348 348 347 348 347 346 345 347 347 347 346 347 349 349 347 348 350 349 342 347 345 342 341 341 341
350 349 348 349 349 349 350 349 349 349 346 345 347 349 349 348 347 346 344 345 348 350 348 348 350 350 349 348 347 346 349 343 347 345 342 341 340 339
348 349 349 348 349 350 350 349 349 349 347 345 346 348 348 347 347 342 346 348 349 346 347 348 350 349 347 345 347 345 343 347 346 341 339 338 338 339
349 348 348 349 350 350 350 349 349 349 349 348 346 348 348 348 345 342 347 345 345 345 345 346 345 347 347 346 346 346 347 347 345 342 344 344 342 341
349 349 348 347 349 349 348 348 349 348 348 346 345 347 348 349 339 344 346 339 343 344 339 334 338 337 336 341 344 346 347 348 349 345 343 346 346 347
342 349 348 347 348 348 348 348 349 347 345 346 347 348 348 337 339 342 344 345 334 339 339 329 327 327 327 329 334 337 342 345 347 348 347 345 343 343
345 349 348 347 347 346 347 347 348 345 347 348 348 347 340 336 337 338 343 345 338 333 338 334 322 323 316 313 319 331 328 331 333 336 340 342 343 343
347 349 347 346 345 346 346 346 347 347 347 347 346 340 334 335 337 337 340 335 327 329 336 331 325 318 314 311 313 315 317 321 321 325 328 325 324 322
345 346 346 345 345 344 343 341 337 336 336 335 332 330 331 333 335 337 338 339 336 326 332 325 330 316 314 309 307 308 311 310 315 320 323 325 323 321
344 345 344 343 342 342 338 334 330 332 333 332 332 335 336 337 338 337 329 333 332 319 324 318 316 323 311 308 306 304 302 302 302 303 304 306 307 306
337 336 333 335 336 336 336 333 328 327 329 330 330 326 326 325 325 325 324 324 324 317 315 315 313 315 325 309 305 305 302 301 300 300 301 301 301 302
333 328 323 322 322 321 318 320 326 325 325 324 322 321 321 321 321 320 320 319 316 309 309 317 309 310 312 314 306 302 303 300 300 300 300 301 300 300
330 320 318 318 318 319 320 321 323 320 320 319 317 316 317 315 313 313 312 312 310 307 305 307 306 307 310 311 307 301 303 300 299 299 299 300 300 300
317 316 317 318 318 319 320 318 318 317 317 316 314 312 312 309 308 308 306 305 304 302 301 302 305 304 304 306 302 300 301 300 299 299 299 299 299 299
321 317 318 317 316 317 317 317 317 316 314 312 310 308 306 308 308 304 303 302 300 299 300 302 302 302 300 299 299 299 299 299 298 298 298 299 299 298
314 314 314 313 312 312 311 310 310 309 309 308 307 305 304 303 302 301 301 302 299 298 298 300 300 300 299 299 299 298 298 298 298 298 298 299 299 298
312 312 311 310 309 309 308 307 307 307 306 305 304 303 302 301 300 299 299 298 298 297 297 297 298 298 299 299 297 298 298 297 298 298 298 299 300 300
309 312 311 310 309 308 308 307 305 304 304 303 303 301 300 299 299 298 298 297 297 297 296 297 297 299 300 301 298 297 298 298 298 298 298 299 299 300
306 309 311 309 308 308 307 306 305 304 303 302 301 299 298 298 297 296 297 297 297 297 297 297 297 297 298 299 298 298 297 298 298 299 299 299 299 299
308 309 310 309 308 307 306 305 304 303 302 301 299 298 297 297 296 296 296 296 296 297 297 297 296 296 296 296 298 298 298 298 298 298 298 299 300 300
309 311 310 310 309 307 306 305 303 302 301 299 298 297 297 296 296 296 296 296 297 296 296 296 296 296 297 297 298 298 299 298 298 299 298 298 299 301
309 309 308 308 307 306 305 304 302 301 300 299 297 296 296 295 295 296 296 296 296 296 296 297 296 296 297 297 297 298 298 298 298 299 299 299 299 299

GFSNE_925_thetae_123.txt.gz
Theta_e
352 351 351 351 347 349 350 350 350 349 346 349 350 352 351 353 349 354 351 347 347 346 345 345 347 349 348 348 349 349 347 341 346 345 343 342 342 344
351 353 351 353 352 350 350 351 350 350 351 348 351 352 352 352 348 349 347 350 347 347 346 346 347 347 347 347 346 347 350 342 346 346 343 341 340 341
353 352 354 352 351 352 353 351 352 352 351 350 350 352 349 351 352 349 351 352 344 347 347 348 350 349 346 347 347 346 348 342 347 343 340 341 340 340
353 353 353 351 352 350 351 350 352 352 351 352 350 350 347 348 349 351 350 350 338 342 346 347 347 346 344 344 343 343 344 347 344 341 339 338 338 339
352 353 350 353 352 351 350 352 350 353 352 352 351 351 351 352 348 349 347 347 345 337 340 338 340 343 345 346 347 347 347 347 346 342 346 346 343 341
347 346 348 348 347 347 349 348 348 348 351 351 350 349 351 353 346 349 347 344 346 336 331 333 334 334 338 339 342 344 346 347 348 345 342 344 346 347
352 349 351 347 346 347 348 348 347 348 347 350 349 350 351 347 346 347 350 342 341 344 331 329 324 321 321 326 331 336 340 342 343 344 344 342 342 341
348 348 348 347 347 347 346 347 348 348 350 351 352 352 351 344 343 344 348 347 341 339 331 326 320 317 316 315 321 323 327 331 335 336 331 332 337 336
350 346 347 346 347 345 346 346 346 346 345 349 351 351 345 342 342 343 346 343 336 333 338 327 322 315 312 309 312 318 322 323 322 321 321 321 320 320
344 347 347 344 343 344 341 339 338 337 338 336 339 339 338 338 340 343 346 336 333 326 336 333 324 319 312 306 303 306 309 317 321 321 318 313 310 309
342 343 342 341 341 342 340 335 332 333 335 334 332 332 334 334 334 340 340 342 340 327 324 326 326 318 315 312 307 301 300 301 302 303 304 304 304 306
338 336 336 335 334 336 338 336 330 329 326 329 326 326 328 329 332 332 331 332 332 325 318 323 322 327 323 313 310 308 306 301 300 300 301 301 302 308
337 336 334 332 327 325 321 325 326 326 326 323 322 322 320 320 320 320 320 322 322 319 311 319 318 318 322 320 309 308 305 304 305 305 303 300 301 303
335 335 333 329 319 319 318 319 323 323 322 319 319 317 315 313 313 313 312 312 311 309 306 310 314 313 315 316 314 307 307 304 304 304 304 303 303 302
325 320 318 318 318 320 320 319 318 318 317 317 316 315 314 310 309 309 308 306 304 303 303 304 309 308 310 312 307 305 306 304 303 303 304 304 304 304
316 317 317 317 319 320 320 319 320 318 317 314 312 310 310 310 309 308 308 307 305 303 301 302 306 305 304 304 305 304 303 305 303 303 304 303 303 303
316 315 313 312 313 313 314 314 313 313 314 312 312 310 309 308 307 306 306 306 306 304 303 303 302 301 303 304 304 303 304 304 303 303 304 304 303 303
312 312 312 311 312 313 314 313 311 310 310 309 309 308 307 306 305 304 303 303 302 302 302 302 303 303 303 301 302 303 303 303 303 303 303 304 304 304
305 310 311 310 309 309 309 307 306 306 305 306 307 306 305 303 303 302 302 302 302 302 302 302 303 304 305 307 302 299 303 303 303 304 303 303 304 303
303 306 308 311 310 308 308 307 306 305 304 304 303 304 303 303 302 302 302 302 302 302 302 302 302 302 304 304 303 302 298 302 302 303 303 303 303 302
307 308 311 310 309 309 308 307 306 304 304 304 303 302 301 301 301 301 300 300 300 301 302 301 300 297 300 300 303 303 302 300 299 301 302 303 303 303
309 310 311 311 310 310 309 306 305 304 303 302 302 301 300 300 300 300 300 301 301 302 302 300 300 300 301 302 302 302 302 302 302 300 299 300 302 303
311 311 311 311 310 309 307 306 306 304 302 301 301 300 299 299 299 299 299 300 300 300 300 301 300 300 300 300 299 301 301 302 302 302 302 302 300 300